| time (UTC) | temp C | wind direction | speed KPH | gust KPH | rain 1hr cm | rain 24hr cm | rain mn cm | humidity % | barometer mb |
| 20260509214124 | 11 | 45 | 12.9 | 0.0 | 0.00 | 0.00 | 0.00 | 77 | 1062.8 |
| 20260509214005 | 11 | 67 | 4.8 | 0.0 | 0.00 | 0.00 | 0.00 | 77 | 1062.8 |
| 20260509213850 | 11 | 45 | 9.7 | 0.0 | 0.00 | 0.00 | 0.00 | 77 | 1062.9 |
| 20260509213728 | 11 | 67 | 4.8 | 0.0 | 0.00 | 0.00 | 0.00 | 77 | 1062.8 |
| 20260509213600 | 11 | 45 | 4.8 | 0.0 | 0.00 | 0.00 | 0.00 | 77 | 1062.9 |
| 20260509213446 | 11 | 67 | 3.2 | 0.0 | 0.00 | 0.00 | 0.00 | 77 | 1062.9 |
| 20260509213326 | 11 | 90 | 8.0 | 0.0 | 0.00 | 0.00 | 0.00 | 77 | 1062.9 |
| 20260509213212 | 11 | 112 | 3.2 | 0.0 | 0.00 | 0.00 | 0.00 | 77 | 1063.0 |
| 20260509213101 | 11 | 90 | 8.0 | 0.0 | 0.00 | 0.00 | 0.00 | 77 | 1062.9 |
| 20260509212954 | 11 | 90 | 11.3 | 0.0 | 0.00 | 0.00 | 0.00 | 77 | 1062.9 |
| 20260509212840 | 11 | 90 | 9.7 | 0.0 | 0.00 | 0.00 | 0.00 | 77 | 1063.0 |
| 20260509212721 | 11 | 112 | 12.9 | 0.0 | 0.00 | 0.00 | 0.00 | 77 | 1063.0 |
| 20260509212614 | 11 | 45 | 4.8 | 0.0 | 0.00 | 0.00 | 0.00 | 77 | 1063.0 |
| 20260509212502 | 11 | 67 | 8.0 | 0.0 | 0.00 | 0.00 | 0.00 | 77 | 1063.0 |
| 20260509212357 | 11 | 67 | 4.8 | 0.0 | 0.00 | 0.00 | 0.00 | 77 | 1063.0 |
| 20260509212252 | 11 | 90 | 4.8 | 0.0 | 0.00 | 0.00 | 0.00 | 77 | 1063.0 |
| 20260509212130 | 11 | 67 | 3.2 | 0.0 | 0.00 | 0.00 | 0.00 | 77 | 1063.0 |
| 20260509212009 | 11 | 90 | 6.4 | 0.0 | 0.00 | 0.00 | 0.00 | 77 | 1063.0 |
| 20260509211848 | 11 | 67 | 3.2 | 0.0 | 0.00 | 0.00 | 0.00 | 76 | 1063.1 |
| 20260509211721 | 11 | 90 | 12.9 | 0.0 | 0.00 | 0.00 | 0.00 | 76 | 1063.0 |
| 20260509211613 | 11 | 45 | 12.9 | 0.0 | 0.00 | 0.00 | 0.00 | 76 | 1063.0 |
| 20260509211452 | 11 | 90 | 4.8 | 0.0 | 0.00 | 0.00 | 0.00 | 76 | 1063.1 |
| 20260509211339 | 11 | 45 | 6.4 | 0.0 | 0.00 | 0.00 | 0.00 | 76 | 1063.1 |
| 20260509211220 | 11 | 90 | 8.0 | 0.0 | 0.00 | 0.00 | 0.00 | 76 | 1063.0 |
| 20260509211105 | 11 | 90 | 6.4 | 0.0 | 0.00 | 0.00 | 0.00 | 76 | 1063.0 |
| 20260509210943 | 11 | 112 | 14.5 | 0.0 | 0.00 | 0.00 | 0.00 | 75 | 1063.0 |
| 20260509210833 | 11 | 45 | 9.7 | 0.0 | 0.00 | 0.00 | 0.00 | 75 | 1062.9 |
| 20260509210727 | 11 | 45 | 16.1 | 0.0 | 0.00 | 0.00 | 0.00 | 75 | 1062.9 |
| 20260509210622 | 11 | 90 | 14.5 | 0.0 | 0.00 | 0.00 | 0.00 | 74 | 1062.9 |
| 20260509210517 | 11 | 45 | 0.0 | 0.0 | 0.00 | 0.00 | 0.00 | 74 | 1062.9 |
| 20260509210401 | 11 | 45 | 8.0 | 0.0 | 0.00 | 0.00 | 0.00 | 74 | 1062.9 |
| 20260509210249 | 11 | 90 | 8.0 | 0.0 | 0.00 | 0.00 | 0.00 | 74 | 1063.0 |
| 20260509210127 | 11 | 67 | 8.0 | 0.0 | 0.00 | 0.00 | 0.00 | 74 | 1062.9 |
| 20260509210007 | 11 | 22 | 6.4 | 0.0 | 0.00 | 0.00 | 0.00 | 74 | 1063.0 |
| 20260509205846 | 11 | 45 | 12.9 | 0.0 | 0.00 | 0.00 | 0.00 | 73 | 1063.0 |
| 20260509205733 | 11 | 45 | 11.3 | 0.0 | 0.00 | 0.00 | 0.00 | 73 | 1063.0 |
| 20260509205628 | 11 | 45 | 11.3 | 0.0 | 0.00 | 0.00 | 0.00 | 73 | 1063.0 |
| 20260509205514 | 11 | 45 | 9.7 | 0.0 | 0.00 | 0.00 | 0.00 | 73 | 1063.0 |
| 20260509205345 | 11 | 45 | 14.5 | 0.0 | 0.00 | 0.00 | 0.00 | 72 | 1063.1 |
| 20260509205231 | 11 | 22 | 6.4 | 0.0 | 0.00 | 0.00 | 0.00 | 72 | 1063.0 |
| 20260509205118 | 11 | 90 | 3.2 | 0.0 | 0.00 | 0.00 | 0.00 | 72 | 1063.1 |
| 20260509204948 | 11 | 67 | 9.7 | 0.0 | 0.00 | 0.00 | 0.00 | 73 | 1063.0 |
| 20260509204836 | 11 | 112 | 8.0 | 0.0 | 0.00 | 0.00 | 0.00 | 73 | 1063.1 |
| 20260509204717 | 11 | 90 | 8.0 | 0.0 | 0.00 | 0.00 | 0.00 | 73 | 1063.1 |
| 20260509204610 | 11 | 45 | 4.8 | 0.0 | 0.00 | 0.00 | 0.00 | 73 | 1063.1 |
| 20260509204456 | 11 | 67 | 3.2 | 0.0 | 0.00 | 0.00 | 0.00 | 73 | 1063.1 |
| 20260509204327 | 11 | 45 | 8.0 | 0.0 | 0.00 | 0.00 | 0.00 | 73 | 1063.2 |
| 20260509204213 | 11 | 22 | 6.4 | 0.0 | 0.00 | 0.00 | 0.00 | 74 | 1063.2 |
| 20260509204044 | 11 | 45 | 9.7 | 0.0 | 0.00 | 0.00 | 0.00 | 74 | 1063.2 |
| 20260509203932 | 11 | 67 | 8.0 | 0.0 | 0.00 | 0.00 | 0.00 | 74 | 1063.2 |
| 20260509203809 | 11 | 67 | 0.0 | 0.0 | 0.00 | 0.00 | 0.00 | 74 | 1063.2 |
| 20260509203650 | 11 | 45 | 3.2 | 0.0 | 0.00 | 0.00 | 0.00 | 74 | 1063.2 |
| 20260509203536 | 11 | 67 | 9.7 | 0.0 | 0.00 | 0.00 | 0.00 | 74 | 1063.1 |
| 20260509203417 | 11 | 67 | 4.8 | 0.0 | 0.00 | 0.00 | 0.00 | 74 | 1063.2 |
| 20260509203310 | 11 | 67 | 9.7 | 0.0 | 0.00 | 0.00 | 0.00 | 74 | 1063.2 |
| 20260509203157 | 11 | 67 | 8.0 | 0.0 | 0.00 | 0.00 | 0.00 | 74 | 1063.2 |
| 20260509203035 | 11 | 90 | 6.4 | 0.0 | 0.00 | 0.00 | 0.00 | 74 | 1063.1 |
| 20260509202924 | 11 | 67 | 1.6 | 0.0 | 0.00 | 0.00 | 0.00 | 74 | 1063.1 |
| 20260509202810 | 12 | 45 | 4.8 | 0.0 | 0.00 | 0.00 | 0.00 | 74 | 1063.1 |
| 20260509202545 | 11 | 90 | 4.8 | 0.0 | 0.00 | 0.00 | 0.00 | 74 | 1063.1 |
| 20260509202440 | 12 | 90 | 6.4 | 0.0 | 0.00 | 0.00 | 0.00 | 74 | 1063.2 |
| 20260509202327 | 12 | 45 | 4.8 | 0.0 | 0.00 | 0.00 | 0.00 | 74 | 1063.2 |
| 20260509202221 | 12 | 67 | 6.4 | 0.0 | 0.00 | 0.00 | 0.00 | 74 | 1063.2 |
| 20260509202117 | 12 | 45 | 9.7 | 0.0 | 0.00 | 0.00 | 0.00 | 74 | 1063.3 |
| 20260509202009 | 12 | 45 | 6.4 | 0.0 | 0.00 | 0.00 | 0.00 | 74 | 1063.2 |
| 20260509201856 | 12 | 45 | 4.8 | 0.0 | 0.00 | 0.00 | 0.00 | 74 | 1063.2 |
| 20260509201737 | 12 | 45 | 3.2 | 0.0 | 0.00 | 0.00 | 0.00 | 74 | 1063.2 |
| 20260509201610 | 12 | 45 | 9.7 | 0.0 | 0.00 | 0.00 | 0.00 | 74 | 1063.2 |
| 20260509201457 | 12 | 45 | 14.5 | 0.0 | 0.00 | 0.00 | 0.00 | 74 | 1063.2 |
| 20260509201342 | 12 | 90 | 4.8 | 0.0 | 0.00 | 0.00 | 0.00 | 74 | 1063.2 |
| 20260509201220 | 12 | 45 | 0.0 | 0.0 | 0.00 | 0.00 | 0.00 | 74 | 1063.2 |
| 20260509201107 | 12 | 45 | 11.3 | 0.0 | 0.00 | 0.00 | 0.00 | 74 | 1063.2 |
| 20260509201002 | 12 | 22 | 6.4 | 0.0 | 0.00 | 0.00 | 0.00 | 74 | 1063.2 |
| 20260509200857 | 12 | 67 | 8.0 | 0.0 | 0.00 | 0.00 | 0.00 | 74 | 1063.2 |
| 20260509200750 | 12 | 90 | 3.2 | 0.0 | 0.00 | 0.00 | 0.00 | 74 | 1063.2 |
| 20260509200620 | 12 | 112 | 9.7 | 0.0 | 0.00 | 0.00 | 0.00 | 74 | 1063.2 |
| 20260509200459 | 12 | 67 | 6.4 | 0.0 | 0.00 | 0.00 | 0.00 | 74 | 1063.2 |
| 20260509200349 | 12 | 45 | 8.0 | 0.0 | 0.00 | 0.00 | 0.00 | 74 | 1063.2 |
| 20260509200242 | 12 | 67 | 4.8 | 0.0 | 0.00 | 0.00 | 0.00 | 74 | 1063.2 |
| 20260509200136 | 12 | 45 | 0.0 | 0.0 | 0.00 | 0.00 | 0.00 | 74 | 1063.1 |
| 20260509200007 | 12 | 67 | 4.8 | 0.0 | 0.00 | 0.00 | 0.00 | 74 | 1063.2 |
| 20260509195854 | 12 | 67 | 9.7 | 0.0 | 0.00 | 0.00 | 0.00 | 74 | 1063.1 |
| 20260509195750 | 12 | 45 | 4.8 | 0.0 | 0.00 | 0.00 | 0.00 | 74 | 1063.1 |
| 20260509195644 | 12 | 90 | 0.0 | 0.0 | 0.00 | 0.00 | 0.00 | 73 | 1063.1 |
| 20260509195539 | 12 | 67 | 1.6 | 0.0 | 0.00 | 0.00 | 0.00 | 73 | 1063.1 |
| 20260509195420 | 12 | 45 | 6.4 | 0.0 | 0.00 | 0.00 | 0.00 | 73 | 1063.1 |
| 20260509195306 | 12 | 45 | 4.8 | 0.0 | 0.00 | 0.00 | 0.00 | 73 | 1063.1 |
| 20260509195151 | 12 | 90 | 4.8 | 0.0 | 0.00 | 0.00 | 0.00 | 73 | 1063.1 |
| 20260509195022 | 12 | 90 | 4.8 | 0.0 | 0.00 | 0.00 | 0.00 | 73 | 1063.2 |
| 20260509194855 | 12 | 22 | 9.7 | 0.0 | 0.00 | 0.00 | 0.00 | 73 | 1063.3 |
| 20260509194740 | 12 | 45 | 8.0 | 0.0 | 0.00 | 0.00 | 0.00 | 73 | 1063.3 |
| 20260509194618 | 12 | 45 | 9.7 | 0.0 | 0.00 | 0.00 | 0.00 | 73 | 1063.4 |
| 20260509194505 | 12 | 67 | 3.2 | 0.0 | 0.00 | 0.00 | 0.00 | 73 | 1063.3 |
| 20260509194343 | 12 | 45 | 9.7 | 0.0 | 0.00 | 0.00 | 0.00 | 73 | 1063.3 |
| 20260509194231 | 12 | 67 | 1.6 | 0.0 | 0.00 | 0.00 | 0.00 | 73 | 1063.4 |
| 20260509194111 | 12 | 67 | 9.7 | 0.0 | 0.00 | 0.00 | 0.00 | 73 | 1063.2 |
| 20260509194005 | 12 | 67 | 3.2 | 0.0 | 0.00 | 0.00 | 0.00 | 72 | 1063.3 |
| 20260509193852 | 12 | 45 | 6.4 | 0.0 | 0.00 | 0.00 | 0.00 | 72 | 1063.3 |
| 20260509193732 | 12 | 45 | 6.4 | 0.0 | 0.00 | 0.00 | 0.00 | 72 | 1063.3 |
| 20260509193625 | 12 | 45 | 9.7 | 0.0 | 0.00 | 0.00 | 0.00 | 72 | 1063.2 |
| 20260509193503 | 12 | 45 | 8.0 | 0.0 | 0.00 | 0.00 | 0.00 | 72 | 1063.2 |
| 20260509193343 | 12 | 45 | 0.0 | 0.0 | 0.00 | 0.00 | 0.00 | 72 | 1063.2 |
| 20260509193223 | 12 | 45 | 8.0 | 0.0 | 0.00 | 0.00 | 0.00 | 72 | 1063.2 |
| 20260509193117 | 12 | 45 | 6.4 | 0.0 | 0.00 | 0.00 | 0.00 | 72 | 1063.2 |
| 20260509193003 | 12 | 45 | 4.8 | 0.0 | 0.00 | 0.00 | 0.00 | 71 | 1063.2 |
| 20260509192845 | 12 | 67 | 0.0 | 0.0 | 0.00 | 0.00 | 0.00 | 71 | 1063.2 |
| 20260509192737 | 12 | 90 | 4.8 | 0.0 | 0.00 | 0.00 | 0.00 | 71 | 1063.3 |
| 20260509192624 | 12 | 45 | 4.8 | 0.0 | 0.00 | 0.00 | 0.00 | 71 | 1063.3 |
| 20260509192519 | 12 | 45 | 8.0 | 0.0 | 0.00 | 0.00 | 0.00 | 71 | 1063.2 |
| 20260509192405 | 12 | 45 | 11.3 | 0.0 | 0.00 | 0.00 | 0.00 | 71 | 1063.2 |
| 20260509192255 | 12 | 90 | 9.7 | 0.0 | 0.00 | 0.00 | 0.00 | 71 | 1063.2 |
| 20260509192142 | 12 | 45 | 6.4 | 0.0 | 0.00 | 0.00 | 0.00 | 71 | 1063.2 |
| 20260509192034 | 12 | 45 | 1.6 | 0.0 | 0.00 | 0.00 | 0.00 | 71 | 1063.2 |
| 20260509191913 | 12 | 45 | 6.4 | 0.0 | 0.00 | 0.00 | 0.00 | 71 | 1063.2 |
| 20260509191752 | 12 | 45 | 11.3 | 0.0 | 0.00 | 0.00 | 0.00 | 71 | 1063.2 |
| 20260509191638 | 12 | 45 | 6.4 | 0.0 | 0.00 | 0.00 | 0.00 | 71 | 1063.2 |
| 20260509191518 | 12 | 22 | 8.0 | 0.0 | 0.00 | 0.00 | 0.00 | 71 | 1063.1 |
| 20260509191407 | 12 | 45 | 6.4 | 0.0 | 0.00 | 0.00 | 0.00 | 71 | 1063.2 |
| 20260509191300 | 12 | 67 | 14.5 | 0.0 | 0.00 | 0.00 | 0.00 | 71 | 1063.1 |
| 20260509191147 | 12 | 45 | 11.3 | 0.0 | 0.00 | 0.00 | 0.00 | 71 | 1063.1 |
| 20260509191042 | 12 | 45 | 12.9 | 0.0 | 0.00 | 0.00 | 0.00 | 71 | 1063.1 |
| 20260509190930 | 12 | 22 | 4.8 | 0.0 | 0.00 | 0.00 | 0.00 | 71 | 1063.0 |
| 20260509190823 | 12 | 45 | 11.3 | 0.0 | 0.00 | 0.00 | 0.00 | 70 | 1063.1 |
| 20260509190713 | 12 | 22 | 3.2 | 0.0 | 0.00 | 0.00 | 0.00 | 70 | 1063.1 |
| 20260509190605 | 12 | 22 | 6.4 | 0.0 | 0.00 | 0.00 | 0.00 | 70 | 1063.0 |
| 20260509190445 | 12 | 45 | 8.0 | 0.0 | 0.00 | 0.00 | 0.00 | 70 | 1063.1 |
| 20260509190333 | 12 | 22 | 6.4 | 0.0 | 0.00 | 0.00 | 0.00 | 70 | 1063.0 |
| 20260509190226 | 12 | 22 | 1.6 | 0.0 | 0.00 | 0.00 | 0.00 | 69 | 1063.0 |
| 20260509190105 | 12 | 45 | 4.8 | 0.0 | 0.00 | 0.00 | 0.00 | 69 | 1063.0 |
| 20260509185952 | 12 | 67 | 9.7 | 0.0 | 0.00 | 0.00 | 0.00 | 69 | 1063.0 |
| 20260509185846 | 12 | 45 | 9.7 | 0.0 | 0.00 | 0.00 | 0.00 | 69 | 1063.0 |
| 20260509185725 | 12 | 112 | 0.0 | 0.0 | 0.00 | 0.00 | 0.00 | 69 | 1062.9 |
| 20260509185613 | 12 | 90 | 11.3 | 0.0 | 0.00 | 0.00 | 0.00 | 69 | 1063.0 |
| 20260509185506 | 12 | 22 | 9.7 | 0.0 | 0.00 | 0.00 | 0.00 | 69 | 1063.0 |
| 20260509185355 | 12 | 67 | 4.8 | 0.0 | 0.00 | 0.00 | 0.00 | 69 | 1063.0 |
| 20260509185249 | 12 | 67 | 3.2 | 0.0 | 0.00 | 0.00 | 0.00 | 69 | 1062.9 |
| 20260509185144 | 12 | 45 | 3.2 | 0.0 | 0.00 | 0.00 | 0.00 | 69 | 1062.9 |
| 20260509185031 | 12 | 45 | 0.0 | 0.0 | 0.00 | 0.00 | 0.00 | 69 | 1062.9 |
| 20260509184909 | 12 | 45 | 3.2 | 0.0 | 0.00 | 0.00 | 0.00 | 69 | 1062.9 |
| 20260509184748 | 12 | 45 | 6.4 | 0.0 | 0.00 | 0.00 | 0.00 | 69 | 1062.9 |
| 20260509184627 | 12 | 45 | 8.0 | 0.0 | 0.00 | 0.00 | 0.00 | 69 | 1063.0 |
| 20260509184514 | 12 | 45 | 8.0 | 0.0 | 0.00 | 0.00 | 0.00 | 69 | 1062.9 |
| 20260509184401 | 12 | 45 | 9.7 | 0.0 | 0.00 | 0.00 | 0.00 | 69 | 1062.9 |
| 20260509184258 | 12 | 45 | 9.7 | 0.0 | 0.00 | 0.00 | 0.00 | 69 | 1063.0 |
| 20260509184150 | 12 | 22 | 9.7 | 0.0 | 0.00 | 0.00 | 0.00 | 68 | 1063.1 |
| 20260509184029 | 12 | 45 | 9.7 | 0.0 | 0.00 | 0.00 | 0.00 | 68 | 1063.0 |
| 20260509183916 | 13 | 45 | 0.0 | 0.0 | 0.00 | 0.00 | 0.00 | 68 | 1062.9 |
| 20260509183757 | 13 | 90 | 8.0 | 0.0 | 0.00 | 0.00 | 0.00 | 68 | 1063.0 |
| 20260509183651 | 13 | 45 | 9.7 | 0.0 | 0.00 | 0.00 | 0.00 | 68 | 1062.9 |
| 20260509183537 | 13 | 45 | 11.3 | 0.0 | 0.00 | 0.00 | 0.00 | 68 | 1062.8 |
| 20260509183424 | 13 | 45 | 11.3 | 0.0 | 0.00 | 0.00 | 0.00 | 67 | 1062.9 |
| 20260509183310 | 13 | 45 | 3.2 | 0.0 | 0.00 | 0.00 | 0.00 | 67 | 1062.8 |
| 20260509183150 | 13 | 67 | 8.0 | 0.0 | 0.00 | 0.00 | 0.00 | 67 | 1062.8 |
| 20260509183037 | 13 | 67 | 0.0 | 0.0 | 0.00 | 0.00 | 0.00 | 67 | 1062.9 |
| 20260509182932 | 13 | 45 | 16.1 | 0.0 | 0.00 | 0.00 | 0.00 | 67 | 1062.8 |
| 20260509182821 | 13 | 45 | 3.2 | 0.0 | 0.00 | 0.00 | 0.00 | 66 | 1062.9 |
| 20260509182713 | 13 | 45 | 8.0 | 0.0 | 0.00 | 0.00 | 0.00 | 66 | 1062.9 |
| 20260509182555 | 13 | 22 | 8.0 | 0.0 | 0.00 | 0.00 | 0.00 | 66 | 1062.9 |
| 20260509182448 | 13 | 45 | 4.8 | 0.0 | 0.00 | 0.00 | 0.00 | 66 | 1062.8 |
| 20260509182345 | 13 | 67 | 9.7 | 0.0 | 0.00 | 0.00 | 0.00 | 66 | 1062.9 |
| 20260509182237 | 13 | 67 | 0.0 | 0.0 | 0.00 | 0.00 | 0.00 | 66 | 1062.9 |
| 20260509182124 | 13 | 67 | 1.6 | 0.0 | 0.00 | 0.00 | 0.00 | 65 | 1062.9 |
| 20260509182018 | 13 | 67 | 8.0 | 0.0 | 0.00 | 0.00 | 0.00 | 65 | 1062.8 |
| 20260509181906 | 13 | 90 | 3.2 | 0.0 | 0.00 | 0.00 | 0.00 | 65 | 1062.9 |
| 20260509181753 | 13 | 112 | 3.2 | 0.0 | 0.00 | 0.00 | 0.00 | 65 | 1062.8 |
| 20260509181640 | 13 | 45 | 9.7 | 0.0 | 0.00 | 0.00 | 0.00 | 64 | 1063.0 |
| 20260509181537 | 13 | 67 | 12.9 | 0.0 | 0.00 | 0.00 | 0.00 | 64 | 1062.9 |
| 20260509181431 | 13 | 45 | 0.0 | 0.0 | 0.00 | 0.00 | 0.00 | 64 | 1063.0 |
| 20260509181324 | 13 | 67 | 8.0 | 0.0 | 0.00 | 0.00 | 0.00 | 64 | 1062.9 |
| 20260509181210 | 13 | 90 | 4.8 | 0.0 | 0.00 | 0.00 | 0.00 | 63 | 1062.9 |
| 20260509181105 | 13 | 45 | 3.2 | 0.0 | 0.00 | 0.00 | 0.00 | 64 | 1062.9 |
| 20260509180959 | 13 | 90 | 8.0 | 0.0 | 0.00 | 0.00 | 0.00 | 63 | 1062.8 |
| 20260509180853 | 13 | 45 | 4.8 | 0.0 | 0.00 | 0.00 | 0.00 | 63 | 1062.9 |
| 20260509180747 | 13 | 67 | 9.7 | 0.0 | 0.00 | 0.00 | 0.00 | 63 | 1062.9 |
| 20260509180634 | 13 | 67 | 4.8 | 0.0 | 0.00 | 0.00 | 0.00 | 63 | 1062.9 |
| 20260509180521 | 13 | 45 | 9.7 | 0.0 | 0.00 | 0.00 | 0.00 | 63 | 1062.9 |
| 20260509180408 | 13 | 67 | 9.7 | 0.0 | 0.00 | 0.00 | 0.00 | 63 | 1062.8 |
| 20260509180255 | 13 | 90 | 12.9 | 0.0 | 0.00 | 0.00 | 0.00 | 63 | 1062.8 |
| 20260509180143 | 13 | 45 | 4.8 | 0.0 | 0.00 | 0.00 | 0.00 | 63 | 1062.8 |
| 20260509180035 | 13 | 112 | 12.9 | 0.0 | 0.00 | 0.00 | 0.00 | 63 | 1062.8 |
| 20260509175922 | 13 | 90 | 14.5 | 0.0 | 0.00 | 0.00 | 0.00 | 63 | 1062.8 |
| 20260509175811 | 13 | 90 | 9.7 | 0.0 | 0.00 | 0.00 | 0.00 | 63 | 1062.8 |
| 20260509175706 | 13 | 22 | 11.3 | 0.0 | 0.00 | 0.00 | 0.00 | 63 | 1062.8 |
| 20260509175559 | 13 | 90 | 11.3 | 0.0 | 0.00 | 0.00 | 0.00 | 63 | 1062.8 |
| 20260509175438 | 13 | 112 | 8.0 | 0.0 | 0.00 | 0.00 | 0.00 | 62 | 1062.9 |
| 20260509175316 | 13 | 112 | 11.3 | 0.0 | 0.00 | 0.00 | 0.00 | 62 | 1062.8 |
| 20260509175204 | 13 | 67 | 11.3 | 0.0 | 0.00 | 0.00 | 0.00 | 62 | 1062.8 |
| 20260509175050 | 13 | 90 | 4.8 | 0.0 | 0.00 | 0.00 | 0.00 | 62 | 1062.8 |
| 20260509174922 | 14 | 67 | 14.5 | 0.0 | 0.00 | 0.00 | 0.00 | 62 | 1062.8 |
| 20260509174808 | 14 | 67 | 4.8 | 0.0 | 0.00 | 0.00 | 0.00 | 62 | 1062.8 |
| 20260509174646 | 14 | 45 | 4.8 | 0.0 | 0.00 | 0.00 | 0.00 | 61 | 1062.8 |
| 20260509174524 | 14 | 112 | 12.9 | 0.0 | 0.00 | 0.00 | 0.00 | 61 | 1062.8 |
| 20260509174404 | 14 | 90 | 16.1 | 0.0 | 0.00 | 0.00 | 0.00 | 61 | 1062.7 |
| 20260509174251 | 14 | 90 | 9.7 | 0.0 | 0.00 | 0.00 | 0.00 | 61 | 1062.7 |
| 20260509174129 | 14 | 90 | 11.3 | 0.0 | 0.00 | 0.00 | 0.00 | 61 | 1062.7 |
| 20260509174017 | 14 | 22 | 9.7 | 0.0 | 0.00 | 0.00 | 0.00 | 60 | 1062.7 |
| 20260509173903 | 14 | 90 | 14.5 | 0.0 | 0.00 | 0.00 | 0.00 | 60 | 1062.6 |
| 20260509173750 | 14 | 90 | 12.9 | 0.0 | 0.00 | 0.00 | 0.00 | 60 | 1062.8 |
| 20260509173630 | 15 | 90 | 11.3 | 0.0 | 0.00 | 0.00 | 0.00 | 60 | 1062.7 |
| 20260509173525 | 15 | 67 | 11.3 | 0.0 | 0.00 | 0.00 | 0.00 | 60 | 1062.7 |
| 20260509173412 | 15 | 67 | 4.8 | 0.0 | 0.00 | 0.00 | 0.00 | 59 | 1062.7 |
| 20260509173258 | 15 | 67 | 9.7 | 0.0 | 0.00 | 0.00 | 0.00 | 59 | 1062.7 |
| 20260509173139 | 15 | 45 | 4.8 | 0.0 | 0.00 | 0.00 | 0.00 | 58 | 1062.7 |
| 20260509173034 | 15 | 67 | 9.7 | 0.0 | 0.00 | 0.00 | 0.00 | 59 | 1062.7 |
| 20260509172929 | 15 | 90 | 6.4 | 0.0 | 0.00 | 0.00 | 0.00 | 58 | 1062.7 |
| 20260509172822 | 15 | 45 | 6.4 | 0.0 | 0.00 | 0.00 | 0.00 | 58 | 1062.6 |
| 20260509172656 | 15 | 67 | 4.8 | 0.0 | 0.00 | 0.00 | 0.00 | 58 | 1062.6 |
| 20260509172548 | 15 | 90 | 19.3 | 0.0 | 0.00 | 0.00 | 0.00 | 58 | 1062.6 |
| 20260509172435 | 15 | 112 | 25.7 | 0.0 | 0.00 | 0.00 | 0.00 | 58 | 1062.6 |
| 20260509172322 | 15 | 90 | 19.3 | 0.0 | 0.00 | 0.00 | 0.00 | 57 | 1062.7 |
| 20260509172216 | 15 | 45 | 12.9 | 0.0 | 0.00 | 0.00 | 0.00 | 57 | 1062.7 |
| 20260509172057 | 15 | 90 | 4.8 | 0.0 | 0.00 | 0.00 | 0.00 | 57 | 1062.7 |
| 20260509171953 | 15 | 45 | 11.3 | 0.0 | 0.00 | 0.00 | 0.00 | 57 | 1062.6 |
| 20260509171844 | 15 | 67 | 11.3 | 0.0 | 0.00 | 0.00 | 0.00 | 57 | 1062.7 |
| 20260509171725 | 15 | 67 | 12.9 | 0.0 | 0.00 | 0.00 | 0.00 | 58 | 1062.7 |
| 20260509171619 | 15 | 67 | 9.7 | 0.0 | 0.00 | 0.00 | 0.00 | 58 | 1062.7 |
| 20260509171514 | 15 | 90 | 8.0 | 0.0 | 0.00 | 0.00 | 0.00 | 58 | 1062.7 |
| 20260509171400 | 15 | 112 | 9.7 | 0.0 | 0.00 | 0.00 | 0.00 | 58 | 1062.7 |
| 20260509171246 | 15 | 112 | 11.3 | 0.0 | 0.00 | 0.00 | 0.00 | 58 | 1062.7 |
| 20260509171134 | 15 | 67 | 17.7 | 0.0 | 0.00 | 0.00 | 0.00 | 58 | 1062.7 |
| 20260509171027 | 15 | 90 | 4.8 | 0.0 | 0.00 | 0.00 | 0.00 | 58 | 1062.6 |
| 20260509170912 | 15 | 45 | 14.5 | 0.0 | 0.00 | 0.00 | 0.00 | 58 | 1062.6 |
| 20260509170752 | 15 | 45 | 6.4 | 0.0 | 0.00 | 0.00 | 0.00 | 58 | 1062.6 |
| 20260509170623 | 15 | 67 | 9.7 | 0.0 | 0.00 | 0.00 | 0.00 | 58 | 1062.6 |
| 20260509170509 | 15 | 67 | 6.4 | 0.0 | 0.00 | 0.00 | 0.00 | 57 | 1062.6 |
| 20260509170349 | 15 | 90 | 11.3 | 0.0 | 0.00 | 0.00 | 0.00 | 58 | 1062.6 |
| 20260509170235 | 15 | 67 | 8.0 | 0.0 | 0.00 | 0.00 | 0.00 | 57 | 1062.6 |
| 20260509170114 | 15 | 22 | 11.3 | 0.0 | 0.00 | 0.00 | 0.00 | 57 | 1062.6 |
| 20260509165953 | 15 | 90 | 12.9 | 0.0 | 0.00 | 0.00 | 0.00 | 57 | 1062.7 |
| 20260509165841 | 15 | 45 | 12.9 | 0.0 | 0.00 | 0.00 | 0.00 | 57 | 1062.7 |
| 20260509165727 | 15 | 112 | 11.3 | 0.0 | 0.00 | 0.00 | 0.00 | 57 | 1062.7 |
| 20260509165615 | 15 | 45 | 8.0 | 0.0 | 0.00 | 0.00 | 0.00 | 57 | 1062.7 |
| 20260509165510 | 15 | 45 | 8.0 | 0.0 | 0.00 | 0.00 | 0.00 | 57 | 1062.7 |
| 20260509165403 | 15 | 22 | 12.9 | 0.0 | 0.00 | 0.00 | 0.00 | 57 | 1062.7 |
| 20260509165243 | 15 | 45 | 8.0 | 0.0 | 0.00 | 0.00 | 0.00 | 57 | 1062.7 |
| 20260509165130 | 15 | 45 | 4.8 | 0.0 | 0.00 | 0.00 | 0.00 | 56 | 1062.6 |
| 20260509165017 | 15 | 67 | 9.7 | 0.0 | 0.00 | 0.00 | 0.00 | 56 | 1062.6 |
| 20260509164912 | 15 | 45 | 11.3 | 0.0 | 0.00 | 0.00 | 0.00 | 56 | 1062.6 |
| 20260509164752 | 15 | 90 | 14.5 | 0.0 | 0.00 | 0.00 | 0.00 | 56 | 1062.8 |
| 20260509164637 | 15 | 67 | 22.5 | 0.0 | 0.00 | 0.00 | 0.00 | 56 | 1062.8 |
| 20260509164524 | 15 | 45 | 6.4 | 0.0 | 0.00 | 0.00 | 0.00 | 55 | 1062.8 |
| 20260509164419 | 15 | 45 | 16.1 | 0.0 | 0.00 | 0.00 | 0.00 | 56 | 1062.8 |
| 20260509164258 | 15 | 90 | 9.7 | 0.0 | 0.00 | 0.00 | 0.00 | 56 | 1062.8 |
| 20260509164145 | 15 | 90 | 16.1 | 0.0 | 0.00 | 0.00 | 0.00 | 55 | 1062.9 |
| 20260509164032 | 15 | 90 | 16.1 | 0.0 | 0.00 | 0.00 | 0.00 | 55 | 1062.9 |
| 20260509163926 | 15 | 90 | 14.5 | 0.0 | 0.00 | 0.00 | 0.00 | 54 | 1062.9 |
| 20260509163814 | 15 | 90 | 19.3 | 0.0 | 0.00 | 0.00 | 0.00 | 54 | 1062.8 |
| 20260509163652 | 15 | 90 | 11.3 | 0.0 | 0.00 | 0.00 | 0.00 | 53 | 1062.8 |
| 20260509163539 | 15 | 90 | 20.9 | 0.0 | 0.00 | 0.00 | 0.00 | 53 | 1062.7 |
| 20260509163412 | 15 | 67 | 14.5 | 0.0 | 0.00 | 0.00 | 0.00 | 53 | 1062.7 |
| 20260509163305 | 15 | 90 | 16.1 | 0.0 | 0.00 | 0.00 | 0.00 | 53 | 1062.7 |
| 20260509163200 | 15 | 67 | 9.7 | 0.0 | 0.00 | 0.00 | 0.00 | 53 | 1062.7 |
| 20260509163047 | 15 | 22 | 6.4 | 0.0 | 0.00 | 0.00 | 0.00 | 53 | 1062.7 |
| 20260509162942 | 15 | 112 | 12.9 | 0.0 | 0.00 | 0.00 | 0.00 | 53 | 1062.8 |
| 20260509162829 | 15 | 67 | 6.4 | 0.0 | 0.00 | 0.00 | 0.00 | 54 | 1062.8 |
| 20260509162724 | 15 | 67 | 6.4 | 0.0 | 0.00 | 0.00 | 0.00 | 54 | 1062.8 |
| 20260509162610 | 15 | 67 | 14.5 | 0.0 | 0.00 | 0.00 | 0.00 | 54 | 1062.8 |
| 20260509162449 | 15 | 67 | 3.2 | 0.0 | 0.00 | 0.00 | 0.00 | 54 | 1062.9 |
| 20260509162344 | 15 | 112 | 17.7 | 0.0 | 0.00 | 0.00 | 0.00 | 54 | 1062.9 |
| 20260509162233 | 15 | 112 | 16.1 | 0.0 | 0.00 | 0.00 | 0.00 | 54 | 1062.9 |
| 20260509162126 | 15 | 90 | 12.9 | 0.0 | 0.00 | 0.00 | 0.00 | 55 | 1063.0 |
| 20260509162004 | 15 | 90 | 11.3 | 0.0 | 0.00 | 0.00 | 0.00 | 55 | 1062.9 |
| 20260509161843 | 15 | 112 | 12.9 | 0.0 | 0.00 | 0.00 | 0.00 | 56 | 1063.0 |
| 20260509161725 | 15 | 67 | 6.4 | 0.0 | 0.00 | 0.00 | 0.00 | 56 | 1062.9 |
| 20260509161603 | 15 | 90 | 4.8 | 0.0 | 0.00 | 0.00 | 0.00 | 56 | 1063.0 |
| 20260509161433 | 15 | 90 | 11.3 | 0.0 | 0.00 | 0.00 | 0.00 | 55 | 1063.1 |
| 20260509161305 | 15 | 67 | 6.4 | 0.0 | 0.00 | 0.00 | 0.00 | 55 | 1063.1 |
| 20260509161149 | 15 | 45 | 12.9 | 0.0 | 0.00 | 0.00 | 0.00 | 54 | 1063.0 |
| 20260509161044 | 15 | 67 | 17.7 | 0.0 | 0.00 | 0.00 | 0.00 | 55 | 1063.1 |
| 20260509160915 | 15 | 112 | 9.7 | 0.0 | 0.00 | 0.00 | 0.00 | 55 | 1063.0 |
| 20260509160753 | 15 | 67 | 20.9 | 0.0 | 0.00 | 0.00 | 0.00 | 55 | 1063.0 |
| 20260509160641 | 15 | 90 | 11.3 | 0.0 | 0.00 | 0.00 | 0.00 | 55 | 1063.0 |
| 20260509160528 | 15 | 67 | 14.5 | 0.0 | 0.00 | 0.00 | 0.00 | 56 | 1063.1 |
| 20260509160414 | 15 | 67 | 14.5 | 0.0 | 0.00 | 0.00 | 0.00 | 56 | 1063.1 |
| 20260509160247 | 15 | 45 | 17.7 | 0.0 | 0.00 | 0.00 | 0.00 | 56 | 1063.1 |
| 20260509160139 | 15 | 112 | 14.5 | 0.0 | 0.00 | 0.00 | 0.00 | 57 | 1063.1 |
| 20260509160027 | 15 | 67 | 14.5 | 0.0 | 0.00 | 0.00 | 0.00 | 57 | 1063.1 |
| 20260509155921 | 15 | 67 | 9.7 | 0.0 | 0.00 | 0.00 | 0.00 | 57 | 1063.1 |
| 20260509155815 | 15 | 22 | 4.8 | 0.0 | 0.00 | 0.00 | 0.00 | 57 | 1063.2 |
| 20260509155701 | 15 | 112 | 6.4 | 0.0 | 0.00 | 0.00 | 0.00 | 57 | 1063.2 |
| 20260509155540 | 15 | 112 | 9.7 | 0.0 | 0.00 | 0.00 | 0.00 | 57 | 1063.2 |
| 20260509155434 | 15 | 112 | 8.0 | 0.0 | 0.00 | 0.00 | 0.00 | 57 | 1063.1 |
| 20260509155313 | 15 | 45 | 12.9 | 0.0 | 0.00 | 0.00 | 0.00 | 57 | 1062.9 |
| 20260509155152 | 15 | 90 | 9.7 | 0.0 | 0.00 | 0.00 | 0.00 | 57 | 1063.2 |
| 20260509155038 | 15 | 45 | 16.1 | 0.0 | 0.00 | 0.00 | 0.00 | 57 | 1063.2 |
| 20260509154911 | 15 | 45 | 11.3 | 0.0 | 0.00 | 0.00 | 0.00 | 56 | 1063.2 |
| 20260509154806 | 15 | 22 | 11.3 | 0.0 | 0.00 | 0.00 | 0.00 | 56 | 1063.2 |
| 20260509154701 | 15 | 67 | 16.1 | 0.0 | 0.00 | 0.00 | 0.00 | 56 | 1063.2 |
| 20260509154555 | 16 | 67 | 17.7 | 0.0 | 0.00 | 0.00 | 0.00 | 56 | 1063.2 |
| 20260509154441 | 16 | 22 | 12.9 | 0.0 | 0.00 | 0.00 | 0.00 | 57 | 1063.2 |
| 20260509154321 | 16 | 67 | 11.3 | 0.0 | 0.00 | 0.00 | 0.00 | 56 | 1063.3 |
| 20260509154215 | 16 | 45 | 22.5 | 0.0 | 0.00 | 0.00 | 0.00 | 57 | 1063.3 |
| 20260509154104 | 16 | 22 | 6.4 | 0.0 | 0.00 | 0.00 | 0.00 | 56 | 1063.3 |
| 20260509153957 | 16 | 90 | 11.3 | 0.0 | 0.00 | 0.00 | 0.00 | 56 | 1063.3 |
| 20260509153835 | 16 | 45 | 9.7 | 0.0 | 0.00 | 0.00 | 0.00 | 56 | 1063.2 |
| 20260509153715 | 16 | 22 | 17.7 | 0.0 | 0.00 | 0.00 | 0.00 | 57 | 1063.2 |
| 20260509153545 | 16 | 45 | 9.7 | 0.0 | 0.00 | 0.00 | 0.00 | 57 | 1063.3 |
| 20260509153425 | 16 | 45 | 12.9 | 0.0 | 0.00 | 0.00 | 0.00 | 58 | 1063.2 |
| 20260509153256 | 16 | 45 | 4.8 | 0.0 | 0.00 | 0.00 | 0.00 | 58 | 1063.3 |
| 20260509153127 | 16 | 45 | 8.0 | 0.0 | 0.00 | 0.00 | 0.00 | 58 | 1063.3 |
| 20260509153014 | 16 | 90 | 8.0 | 0.0 | 0.00 | 0.00 | 0.00 | 58 | 1063.4 |
| 20260509152850 | 16 | 45 | 0.0 | 0.0 | 0.00 | 0.00 | 0.00 | 58 | 1063.4 |
| 20260509152729 | 16 | 45 | 16.1 | 0.0 | 0.00 | 0.00 | 0.00 | 58 | 1063.4 |
| 20260509152616 | 16 | 67 | 11.3 | 0.0 | 0.00 | 0.00 | 0.00 | 58 | 1063.4 |
| 20260509152455 | 16 | 45 | 6.4 | 0.0 | 0.00 | 0.00 | 0.00 | 58 | 1063.4 |
| 20260509152342 | 16 | 45 | 11.3 | 0.0 | 0.00 | 0.00 | 0.00 | 58 | 1063.4 |
| 20260509152239 | 16 | 67 | 12.9 | 0.0 | 0.00 | 0.00 | 0.00 | 57 | 1063.4 |
| 20260509152132 | 16 | 67 | 9.7 | 0.0 | 0.00 | 0.00 | 0.00 | 57 | 1063.4 |
| 20260509152019 | 16 | 22 | 14.5 | 0.0 | 0.00 | 0.00 | 0.00 | 57 | 1063.4 |
| 20260509151857 | 16 | 45 | 11.3 | 0.0 | 0.00 | 0.00 | 0.00 | 56 | 1063.3 |
| 20260509151746 | 16 | 90 | 17.7 | 0.0 | 0.00 | 0.00 | 0.00 | 56 | 1063.3 |
| 20260509151639 | 16 | 67 | 19.3 | 0.0 | 0.00 | 0.00 | 0.00 | 56 | 1063.3 |
| 20260509151526 | 16 | 22 | 11.3 | 0.0 | 0.00 | 0.00 | 0.00 | 55 | 1063.4 |
| 20260509151421 | 16 | 90 | 8.0 | 0.0 | 0.00 | 0.00 | 0.00 | 55 | 1063.4 |
| 20260509151302 | 16 | 112 | 20.9 | 0.0 | 0.00 | 0.00 | 0.00 | 55 | 1063.4 |
| 20260509151147 | 16 | 112 | 14.5 | 0.0 | 0.00 | 0.00 | 0.00 | 55 | 1063.4 |
| 20260509151025 | 16 | 90 | 16.1 | 0.0 | 0.00 | 0.00 | 0.00 | 55 | 1063.5 |
| 20260509150905 | 16 | 22 | 6.4 | 0.0 | 0.00 | 0.00 | 0.00 | 56 | 1063.5 |
| 20260509150800 | 17 | 90 | 9.7 | 0.0 | 0.00 | 0.00 | 0.00 | 55 | 1063.5 |
| 20260509150647 | 17 | 67 | 16.1 | 0.0 | 0.00 | 0.00 | 0.00 | 55 | 1063.6 |
| 20260509150535 | 17 | 112 | 14.5 | 0.0 | 0.00 | 0.00 | 0.00 | 55 | 1063.6 |
| 20260509150422 | 17 | 67 | 17.7 | 0.0 | 0.00 | 0.00 | 0.00 | 56 | 1063.6 |
| 20260509150307 | 17 | 112 | 8.0 | 0.0 | 0.00 | 0.00 | 0.00 | 56 | 1063.6 |
| 20260509150153 | 17 | 45 | 16.1 | 0.0 | 0.00 | 0.00 | 0.00 | 57 | 1063.7 |
| 20260509150032 | 17 | 67 | 6.4 | 0.0 | 0.00 | 0.00 | 0.00 | 57 | 1063.7 |
| 20260509145927 | 17 | 0 | 11.3 | 0.0 | 0.00 | 0.00 | 0.00 | 57 | 1063.7 |
| 20260509145813 | 16 | 112 | 19.3 | 0.0 | 0.00 | 0.00 | 0.00 | 57 | 1063.7 |
| 20260509145700 | 16 | 315 | 9.7 | 0.0 | 0.00 | 0.00 | 0.00 | 57 | 1063.5 |
| 20260509145538 | 16 | 45 | 8.0 | 0.0 | 0.00 | 0.00 | 0.00 | 58 | 1063.7 |
| 20260509145418 | 16 | 45 | 8.0 | 0.0 | 0.00 | 0.00 | 0.00 | 58 | 1063.7 |
| 20260509145306 | 16 | 45 | 6.4 | 0.0 | 0.00 | 0.00 | 0.00 | 57 | 1063.7 |
| 20260509145143 | 16 | 90 | 12.9 | 0.0 | 0.00 | 0.00 | 0.00 | 57 | 1063.7 |
| 20260509145032 | 16 | 22 | 6.4 | 0.0 | 0.00 | 0.00 | 0.00 | 57 | 1063.7 |
| 20260509144925 | 16 | 45 | 11.3 | 0.0 | 0.00 | 0.00 | 0.00 | 58 | 1063.8 |
| 20260509144820 | 16 | 112 | 9.7 | 0.0 | 0.00 | 0.00 | 0.00 | 58 | 1063.7 |
| 20260509144716 | 16 | 112 | 16.1 | 0.0 | 0.00 | 0.00 | 0.00 | 58 | 1063.7 |
| 20260509144601 | 16 | 45 | 8.0 | 0.0 | 0.00 | 0.00 | 0.00 | 58 | 1063.8 |
| 20260509144449 | 16 | 67 | 3.2 | 0.0 | 0.00 | 0.00 | 0.00 | 58 | 1063.7 |
| 20260509144336 | 16 | 90 | 9.7 | 0.0 | 0.00 | 0.00 | 0.00 | 58 | 1063.8 |
| 20260509144223 | 16 | 112 | 6.4 | 0.0 | 0.00 | 0.00 | 0.00 | 58 | 1063.7 |
| 20260509144111 | 16 | 67 | 17.7 | 0.0 | 0.00 | 0.00 | 0.00 | 59 | 1063.8 |
| 20260509143956 | 16 | 90 | 9.7 | 0.0 | 0.00 | 0.00 | 0.00 | 59 | 1063.8 |
| 20260509143834 | 16 | 90 | 6.4 | 0.0 | 0.00 | 0.00 | 0.00 | 59 | 1063.8 |
| 20260509143716 | 16 | 45 | 16.1 | 0.0 | 0.00 | 0.00 | 0.00 | 59 | 1063.8 |
| 20260509143609 | 16 | 0 | 4.8 | 0.0 | 0.00 | 0.00 | 0.00 | 59 | 1063.8 |
| 20260509143504 | 16 | 90 | 11.3 | 0.0 | 0.00 | 0.00 | 0.00 | 59 | 1063.8 |
| 20260509143351 | 15 | 67 | 9.7 | 0.0 | 0.00 | 0.00 | 0.00 | 59 | 1063.8 |
| 20260509143238 | 15 | 45 | 16.1 | 0.0 | 0.00 | 0.00 | 0.00 | 59 | 1063.9 |
| 20260509143133 | 15 | 22 | 11.3 | 0.0 | 0.00 | 0.00 | 0.00 | 59 | 1063.9 |
| 20260509143028 | 15 | 45 | 6.4 | 0.0 | 0.00 | 0.00 | 0.00 | 59 | 1063.9 |
| 20260509142922 | 16 | 90 | 6.4 | 0.0 | 0.00 | 0.00 | 0.00 | 58 | 1063.9 |
| 20260509142809 | 16 | 22 | 17.7 | 0.0 | 0.00 | 0.00 | 0.00 | 58 | 1063.9 |
| 20260509142706 | 16 | 67 | 4.8 | 0.0 | 0.00 | 0.00 | 0.00 | 58 | 1064.0 |
| 20260509142558 | 16 | 45 | 17.7 | 0.0 | 0.00 | 0.00 | 0.00 | 57 | 1064.0 |
| 20260509142439 | 16 | 45 | 17.7 | 0.0 | 0.00 | 0.00 | 0.00 | 57 | 1064.0 |
| 20260509142333 | 16 | 112 | 12.9 | 0.0 | 0.00 | 0.00 | 0.00 | 57 | 1064.0 |
| 20260509142227 | 16 | 90 | 8.0 | 0.0 | 0.00 | 0.00 | 0.00 | 56 | 1064.1 |
| 20260509142114 | 16 | 67 | 6.4 | 0.0 | 0.00 | 0.00 | 0.00 | 56 | 1064.1 |
| 20260509142009 | 16 | 90 | 11.3 | 0.0 | 0.00 | 0.00 | 0.00 | 56 | 1064.0 |
| 20260509141854 | 16 | 90 | 9.7 | 0.0 | 0.00 | 0.00 | 0.00 | 56 | 1064.0 |
| 20260509141746 | 16 | 90 | 1.6 | 0.0 | 0.00 | 0.00 | 0.00 | 56 | 1064.0 |
| 20260509141638 | 16 | 90 | 11.3 | 0.0 | 0.00 | 0.00 | 0.00 | 55 | 1064.1 |
| 20260509141525 | 16 | 90 | 6.4 | 0.0 | 0.00 | 0.00 | 0.00 | 55 | 1064.1 |
| 20260509141420 | 16 | 67 | 6.4 | 0.0 | 0.00 | 0.00 | 0.00 | 54 | 1064.0 |
| 20260509141307 | 16 | 22 | 9.7 | 0.0 | 0.00 | 0.00 | 0.00 | 53 | 1064.0 |
| 20260509141202 | 16 | 45 | 6.4 | 0.0 | 0.00 | 0.00 | 0.00 | 51 | 1064.0 |
| 20260509141049 | 16 | 90 | 6.4 | 0.0 | 0.00 | 0.00 | 0.00 | 51 | 1064.0 |
| 20260509140938 | 16 | 135 | 3.2 | 0.0 | 0.00 | 0.00 | 0.00 | 51 | 1064.1 |
| 20260509140832 | 16 | 112 | 6.4 | 0.0 | 0.00 | 0.00 | 0.00 | 51 | 1064.1 |
| 20260509140727 | 16 | 135 | 9.7 | 0.0 | 0.00 | 0.00 | 0.00 | 51 | 1064.0 |
| 20260509140620 | 16 | 112 | 11.3 | 0.0 | 0.00 | 0.00 | 0.00 | 50 | 1064.0 |
| 20260509140500 | 16 | 135 | 9.7 | 0.0 | 0.00 | 0.00 | 0.00 | 50 | 1064.0 |
| 20260509140355 | 16 | 112 | 9.7 | 0.0 | 0.00 | 0.00 | 0.00 | 51 | 1064.1 |
| 20260509140235 | 16 | 112 | 8.0 | 0.0 | 0.00 | 0.00 | 0.00 | 51 | 1064.1 |
| 20260509140121 | 16 | 90 | 9.7 | 0.0 | 0.00 | 0.00 | 0.00 | 51 | 1064.1 |
| 20260509140009 | 16 | 112 | 9.7 | 0.0 | 0.00 | 0.00 | 0.00 | 51 | 1064.1 |
| 20260509135858 | 16 | 112 | 4.8 | 0.0 | 0.00 | 0.00 | 0.00 | 51 | 1064.1 |
| 20260509135752 | 16 | 135 | 1.6 | 0.0 | 0.00 | 0.00 | 0.00 | 50 | 1064.0 |
| 20260509135630 | 16 | 112 | 11.3 | 0.0 | 0.00 | 0.00 | 0.00 | 50 | 1064.0 |
| 20260509135510 | 16 | 112 | 4.8 | 0.0 | 0.00 | 0.00 | 0.00 | 50 | 1064.1 |
| 20260509135404 | 16 | 112 | 12.9 | 0.0 | 0.00 | 0.00 | 0.00 | 50 | 1064.0 |
| 20260509135250 | 17 | 112 | 6.4 | 0.0 | 0.00 | 0.00 | 0.00 | 49 | 1064.0 |
| 20260509135121 | 17 | 135 | 9.7 | 0.0 | 0.00 | 0.00 | 0.00 | 49 | 1064.0 |
| 20260509135008 | 17 | 157 | 16.1 | 0.0 | 0.00 | 0.00 | 0.00 | 49 | 1064.1 |
| 20260509134857 | 17 | 157 | 9.7 | 0.0 | 0.00 | 0.00 | 0.00 | 49 | 1064.0 |
| 20260509134751 | 17 | 157 | 9.7 | 0.0 | 0.00 | 0.00 | 0.00 | 48 | 1064.1 |
| 20260509134645 | 17 | 112 | 9.7 | 0.0 | 0.00 | 0.00 | 0.00 | 48 | 1064.1 |
| 20260509134532 | 17 | 180 | 9.7 | 0.0 | 0.00 | 0.00 | 0.00 | 48 | 1064.1 |
| 20260509134427 | 17 | 135 | 8.0 | 0.0 | 0.00 | 0.00 | 0.00 | 48 | 1064.2 |
| 20260509134313 | 17 | 112 | 11.3 | 0.0 | 0.00 | 0.00 | 0.00 | 48 | 1064.2 |
| 20260509134159 | 17 | 157 | 6.4 | 0.0 | 0.00 | 0.00 | 0.00 | 48 | 1064.2 |
| 20260509134047 | 17 | 180 | 11.3 | 0.0 | 0.00 | 0.00 | 0.00 | 48 | 1064.1 |
| 20260509133933 | 17 | 157 | 8.0 | 0.0 | 0.00 | 0.00 | 0.00 | 48 | 1064.1 |
| 20260509133813 | 17 | 157 | 9.7 | 0.0 | 0.00 | 0.00 | 0.00 | 48 | 1064.1 |
| 20260509133700 | 17 | 135 | 9.7 | 0.0 | 0.00 | 0.00 | 0.00 | 48 | 1064.1 |
| 20260509133538 | 17 | 157 | 6.4 | 0.0 | 0.00 | 0.00 | 0.00 | 48 | 1064.1 |
| 20260509133417 | 17 | 112 | 3.2 | 0.0 | 0.00 | 0.00 | 0.00 | 48 | 1064.1 |
| 20260509133305 | 17 | 135 | 8.0 | 0.0 | 0.00 | 0.00 | 0.00 | 47 | 1064.1 |
| 20260509133158 | 17 | 135 | 12.9 | 0.0 | 0.00 | 0.00 | 0.00 | 47 | 1064.2 |
| 20260509133046 | 17 | 135 | 11.3 | 0.0 | 0.00 | 0.00 | 0.00 | 47 | 1064.3 |
| 20260509132925 | 17 | 157 | 20.9 | 0.0 | 0.00 | 0.00 | 0.00 | 47 | 1064.2 |
| 20260509132812 | 18 | 135 | 12.9 | 0.0 | 0.00 | 0.00 | 0.00 | 47 | 1064.2 |
| 20260509132658 | 18 | 135 | 9.7 | 0.0 | 0.00 | 0.00 | 0.00 | 47 | 1064.3 |
| 20260509132538 | 18 | 67 | 11.3 | 0.0 | 0.00 | 0.00 | 0.00 | 46 | 1064.3 |
| 20260509132424 | 18 | 180 | 16.1 | 0.0 | 0.00 | 0.00 | 0.00 | 45 | 1064.3 |
| 20260509132306 | 18 | 157 | 8.0 | 0.0 | 0.00 | 0.00 | 0.00 | 46 | 1064.3 |
| 20260509132153 | 18 | 135 | 6.4 | 0.0 | 0.00 | 0.00 | 0.00 | 46 | 1064.3 |
| 20260509132045 | 18 | 157 | 9.7 | 0.0 | 0.00 | 0.00 | 0.00 | 45 | 1064.3 |
| 20260509131932 | 18 | 135 | 9.7 | 0.0 | 0.00 | 0.00 | 0.00 | 46 | 1064.3 |
| 20260509131818 | 18 | 135 | 12.9 | 0.0 | 0.00 | 0.00 | 0.00 | 46 | 1064.3 |
| 20260509131550 | 18 | 112 | 9.7 | 0.0 | 0.00 | 0.00 | 0.00 | 46 | 1064.3 |
| 20260509131205 | 17 | 90 | 9.7 | 0.0 | 0.00 | 0.00 | 0.00 | 46 | 1064.4 |
| 20260509131052 | 18 | 135 | 9.7 | 0.0 | 0.00 | 0.00 | 0.00 | 45 | 1064.3 |
| 20260509130947 | 18 | 157 | 8.0 | 0.0 | 0.00 | 0.00 | 0.00 | 45 | 1064.4 |
| 20260509130833 | 18 | 135 | 16.1 | 0.0 | 0.00 | 0.00 | 0.00 | 45 | 1064.4 |
| 20260509130721 | 18 | 180 | 14.5 | 0.0 | 0.00 | 0.00 | 0.00 | 46 | 1064.5 |
| 20260509130607 | 18 | 202 | 9.7 | 0.0 | 0.00 | 0.00 | 0.00 | 46 | 1064.5 |
| 20260509130455 | 18 | 135 | 4.8 | 0.0 | 0.00 | 0.00 | 0.00 | 46 | 1064.5 |
| 20260509130333 | 18 | 157 | 0.0 | 0.0 | 0.00 | 0.00 | 0.00 | 46 | 1064.5 |
| 20260509130222 | 18 | 157 | 6.4 | 0.0 | 0.00 | 0.00 | 0.00 | 45 | 1064.5 |
| 20260509130115 | 18 | 135 | 14.5 | 0.0 | 0.00 | 0.00 | 0.00 | 45 | 1064.5 |
| 20260509130012 | 18 | 135 | 9.7 | 0.0 | 0.00 | 0.00 | 0.00 | 45 | 1064.5 |
| 20260509125905 | 18 | 135 | 0.0 | 0.0 | 0.00 | 0.00 | 0.00 | 45 | 1064.5 |
| 20260509125752 | 18 | 112 | 8.0 | 0.0 | 0.00 | 0.00 | 0.00 | 46 | 1064.5 |
| 20260509125648 | 18 | 90 | 3.2 | 0.0 | 0.00 | 0.00 | 0.00 | 46 | 1064.6 |
| 20260509125542 | 18 | 112 | 8.0 | 0.0 | 0.00 | 0.00 | 0.00 | 46 | 1064.5 |
| 20260509125437 | 18 | 112 | 1.6 | 0.0 | 0.00 | 0.00 | 0.00 | 47 | 1064.6 |
| 20260509125333 | 18 | 112 | 0.0 | 0.0 | 0.00 | 0.00 | 0.00 | 48 | 1064.5 |
| 20260509125226 | 18 | 0 | 0.0 | 0.0 | 0.00 | 0.00 | 0.00 | 47 | 1064.7 |
| 20260509125114 | 18 | 45 | 0.0 | 0.0 | 0.00 | 0.00 | 0.00 | 45 | 1064.7 |
| 20260509125001 | 18 | 112 | 17.7 | 0.0 | 0.00 | 0.00 | 0.00 | 46 | 1064.6 |
| 20260509124847 | 18 | 45 | 4.8 | 0.0 | 0.00 | 0.00 | 0.00 | 46 | 1064.6 |
| 20260509124734 | 18 | 112 | 9.7 | 0.0 | 0.00 | 0.00 | 0.00 | 46 | 1064.7 |
| 20260509124630 | 18 | 157 | 4.8 | 0.0 | 0.00 | 0.00 | 0.00 | 46 | 1064.5 |
| 20260509124516 | 18 | 135 | 9.7 | 0.0 | 0.00 | 0.00 | 0.00 | 46 | 1064.6 |
| 20260509124354 | 17 | 112 | 3.2 | 0.0 | 0.00 | 0.00 | 0.00 | 46 | 1064.5 |
| 20260509124241 | 17 | 112 | 9.7 | 0.0 | 0.00 | 0.00 | 0.00 | 46 | 1064.6 |
| 20260509124112 | 17 | 135 | 6.4 | 0.0 | 0.00 | 0.00 | 0.00 | 45 | 1064.6 |
| 20260509124001 | 17 | 90 | 6.4 | 0.0 | 0.00 | 0.00 | 0.00 | 45 | 1064.7 |
| 20260509123855 | 17 | 135 | 11.3 | 0.0 | 0.00 | 0.00 | 0.00 | 45 | 1064.6 |
| 20260509123750 | 17 | 135 | 9.7 | 0.0 | 0.00 | 0.00 | 0.00 | 46 | 1064.6 |
| 20260509123645 | 17 | 112 | 11.3 | 0.0 | 0.00 | 0.00 | 0.00 | 46 | 1064.6 |
| 20260509123523 | 17 | 135 | 9.7 | 0.0 | 0.00 | 0.00 | 0.00 | 46 | 1064.6 |
| 20260509123402 | 17 | 67 | 12.9 | 0.0 | 0.00 | 0.00 | 0.00 | 46 | 1064.7 |
| 20260509123241 | 17 | 135 | 12.9 | 0.0 | 0.00 | 0.00 | 0.00 | 46 | 1064.6 |
| 20260509123129 | 17 | 135 | 9.7 | 0.0 | 0.00 | 0.00 | 0.00 | 46 | 1064.7 |
| 20260509123023 | 17 | 112 | 11.3 | 0.0 | 0.00 | 0.00 | 0.00 | 47 | 1064.7 |
| 20260509122909 | 17 | 135 | 6.4 | 0.0 | 0.00 | 0.00 | 0.00 | 46 | 1064.7 |
| 20260509122756 | 17 | 157 | 3.2 | 0.0 | 0.00 | 0.00 | 0.00 | 47 | 1064.7 |
| 20260509122636 | 17 | 135 | 16.1 | 0.0 | 0.00 | 0.00 | 0.00 | 47 | 1064.7 |
| 20260509122531 | 17 | 135 | 11.3 | 0.0 | 0.00 | 0.00 | 0.00 | 47 | 1064.8 |
| 20260509122418 | 17 | 157 | 14.5 | 0.0 | 0.00 | 0.00 | 0.00 | 47 | 1064.8 |
| 20260509122313 | 17 | 157 | 8.0 | 0.0 | 0.00 | 0.00 | 0.00 | 46 | 1064.7 |
| 20260509122208 | 17 | 135 | 14.5 | 0.0 | 0.00 | 0.00 | 0.00 | 47 | 1064.9 |
| 20260509122103 | 17 | 157 | 8.0 | 0.0 | 0.00 | 0.00 | 0.00 | 46 | 1064.8 |
| 20260509121958 | 17 | 157 | 9.7 | 0.0 | 0.00 | 0.00 | 0.00 | 46 | 1064.9 |
| 20260509121853 | 17 | 135 | 9.7 | 0.0 | 0.00 | 0.00 | 0.00 | 46 | 1064.8 |
| 20260509121741 | 17 | 157 | 9.7 | 0.0 | 0.00 | 0.00 | 0.00 | 46 | 1064.8 |
| 20260509121619 | 17 | 157 | 16.1 | 0.0 | 0.00 | 0.00 | 0.00 | 46 | 1064.8 |
| 20260509121513 | 17 | 135 | 19.3 | 0.0 | 0.00 | 0.00 | 0.00 | 46 | 1064.9 |
| 20260509121400 | 17 | 112 | 11.3 | 0.0 | 0.00 | 0.00 | 0.00 | 46 | 1064.9 |
| 20260509121246 | 17 | 112 | 12.9 | 0.0 | 0.00 | 0.00 | 0.00 | 46 | 1064.8 |
| 20260509121133 | 17 | 180 | 9.7 | 0.0 | 0.00 | 0.00 | 0.00 | 45 | 1064.8 |
| 20260509121015 | 17 | 67 | 8.0 | 0.0 | 0.00 | 0.00 | 0.00 | 45 | 1064.8 |
| 20260509120908 | 17 | 22 | 6.4 | 0.0 | 0.00 | 0.00 | 0.00 | 44 | 1064.8 |
| 20260509120804 | 17 | 67 | 4.8 | 0.0 | 0.00 | 0.00 | 0.00 | 44 | 1065.0 |
| 20260509120644 | 17 | 45 | 3.2 | 0.0 | 0.00 | 0.00 | 0.00 | 44 | 1064.9 |
| 20260509120531 | 17 | 112 | 11.3 | 0.0 | 0.00 | 0.00 | 0.00 | 45 | 1064.9 |
| 20260509120420 | 17 | 22 | 8.0 | 0.0 | 0.00 | 0.00 | 0.00 | 45 | 1065.0 |
| 20260509120314 | 17 | 112 | 6.4 | 0.0 | 0.00 | 0.00 | 0.00 | 44 | 1065.0 |
| 20260509120200 | 17 | 22 | 8.0 | 0.0 | 0.00 | 0.00 | 0.00 | 44 | 1065.0 |
| 20260509120025 | 17 | 45 | 9.7 | 0.0 | 0.00 | 0.00 | 0.00 | 43 | 1065.0 |
| 20260509115919 | 18 | 90 | 17.7 | 0.0 | 0.00 | 0.00 | 0.00 | 43 | 1065.0 |
| 20260509115759 | 18 | 45 | 9.7 | 0.0 | 0.00 | 0.00 | 0.00 | 44 | 1065.0 |
| 20260509115645 | 18 | 90 | 6.4 | 0.0 | 0.00 | 0.00 | 0.00 | 44 | 1065.0 |
| 20260509115526 | 18 | 67 | 6.4 | 0.0 | 0.00 | 0.00 | 0.00 | 43 | 1065.0 |
| 20260509115410 | 18 | 67 | 9.7 | 0.0 | 0.00 | 0.00 | 0.00 | 43 | 1065.0 |
| 20260509115258 | 18 | 67 | 8.0 | 0.0 | 0.00 | 0.00 | 0.00 | 42 | 1065.0 |
| 20260509115144 | 18 | 112 | 8.0 | 0.0 | 0.00 | 0.00 | 0.00 | 42 | 1065.1 |
| 20260509115023 | 18 | 90 | 8.0 | 0.0 | 0.00 | 0.00 | 0.00 | 42 | 1064.9 |
| 20260509114910 | 18 | 135 | 6.4 | 0.0 | 0.00 | 0.00 | 0.00 | 42 | 1065.0 |
| 20260509114749 | 18 | 135 | 14.5 | 0.0 | 0.00 | 0.00 | 0.00 | 41 | 1065.0 |
| 20260509114627 | 18 | 112 | 16.1 | 0.0 | 0.00 | 0.00 | 0.00 | 41 | 1065.0 |
| 20260509114458 | 18 | 135 | 14.5 | 0.0 | 0.00 | 0.00 | 0.00 | 40 | 1065.0 |
| 20260509114345 | 19 | 90 | 14.5 | 0.0 | 0.00 | 0.00 | 0.00 | 40 | 1065.0 |
| 20260509114232 | 19 | 112 | 12.9 | 0.0 | 0.00 | 0.00 | 0.00 | 39 | 1065.0 |
| 20260509114120 | 20 | 157 | 6.4 | 0.0 | 0.00 | 0.00 | 0.00 | 39 | 1065.0 |
| 20260509114016 | 20 | 135 | 11.3 | 0.0 | 0.00 | 0.00 | 0.00 | 39 | 1065.0 |
| 20260509113910 | 20 | 90 | 9.7 | 0.0 | 0.00 | 0.00 | 0.00 | 39 | 1065.0 |
| 20260509113804 | 20 | 135 | 14.5 | 0.0 | 0.00 | 0.00 | 0.00 | 39 | 1065.1 |
| 20260509113651 | 20 | 135 | 14.5 | 0.0 | 0.00 | 0.00 | 0.00 | 38 | 1065.0 |
| 20260509113531 | 20 | 135 | 9.7 | 0.0 | 0.00 | 0.00 | 0.00 | 39 | 1065.0 |
| 20260509113408 | 20 | 112 | 14.5 | 0.0 | 0.00 | 0.00 | 0.00 | 40 | 1065.0 |
| 20260509113247 | 20 | 112 | 11.3 | 0.0 | 0.00 | 0.00 | 0.00 | 40 | 1065.0 |
| 20260509113128 | 20 | 112 | 9.7 | 0.0 | 0.00 | 0.00 | 0.00 | 40 | 1065.0 |
| 20260509113023 | 20 | 135 | 17.7 | 0.0 | 0.00 | 0.00 | 0.00 | 40 | 1065.1 |
| 20260509112918 | 20 | 135 | 6.4 | 0.0 | 0.00 | 0.00 | 0.00 | 41 | 1065.0 |
| 20260509112803 | 20 | 157 | 12.9 | 0.0 | 0.00 | 0.00 | 0.00 | 41 | 1065.0 |
| 20260509112649 | 20 | 135 | 9.7 | 0.0 | 0.00 | 0.00 | 0.00 | 41 | 1065.0 |
| 20260509112537 | 19 | 135 | 17.7 | 0.0 | 0.00 | 0.00 | 0.00 | 41 | 1065.0 |
| 20260509112423 | 19 | 112 | 12.9 | 0.0 | 0.00 | 0.00 | 0.00 | 43 | 1065.0 |
| 20260509112306 | 18 | 112 | 16.1 | 0.0 | 0.00 | 0.00 | 0.00 | 43 | 1065.0 |
| 20260509112143 | 18 | 135 | 9.7 | 0.0 | 0.00 | 0.00 | 0.00 | 42 | 1065.0 |
| 20260509112036 | 18 | 180 | 17.7 | 0.0 | 0.00 | 0.00 | 0.00 | 41 | 1065.1 |
| 20260509111923 | 18 | 135 | 14.5 | 0.0 | 0.00 | 0.00 | 0.00 | 43 | 1065.1 |
| 20260509111810 | 18 | 112 | 9.7 | 0.0 | 0.00 | 0.00 | 0.00 | 43 | 1065.0 |
| 20260509111649 | 18 | 112 | 6.4 | 0.0 | 0.00 | 0.00 | 0.00 | 43 | 1065.0 |
| 20260509111536 | 18 | 135 | 9.7 | 0.0 | 0.00 | 0.00 | 0.00 | 44 | 1065.0 |
| 20260509111430 | 18 | 45 | 11.3 | 0.0 | 0.00 | 0.00 | 0.00 | 44 | 1065.1 |
| 20260509111302 | 18 | 112 | 3.2 | 0.0 | 0.00 | 0.00 | 0.00 | 44 | 1065.1 |
| 20260509111159 | 18 | 112 | 0.0 | 0.0 | 0.00 | 0.00 | 0.00 | 43 | 1065.1 |
| 20260509111052 | 18 | 112 | 6.4 | 0.0 | 0.00 | 0.00 | 0.00 | 42 | 1065.2 |
| 20260509110940 | 18 | 90 | 22.5 | 0.0 | 0.00 | 0.00 | 0.00 | 43 | 1065.2 |
| 20260509110819 | 18 | 90 | 9.7 | 0.0 | 0.00 | 0.00 | 0.00 | 43 | 1065.2 |
| 20260509110652 | 18 | 22 | 3.2 | 0.0 | 0.00 | 0.00 | 0.00 | 43 | 1065.2 |
| 20260509110544 | 18 | 112 | 12.9 | 0.0 | 0.00 | 0.00 | 0.00 | 43 | 1065.2 |
| 20260509110432 | 19 | 0 | 8.0 | 0.0 | 0.00 | 0.00 | 0.00 | 42 | 1065.2 |
| 20260509110329 | 19 | 22 | 11.3 | 0.0 | 0.00 | 0.00 | 0.00 | 42 | 1065.2 |
| 20260509110223 | 19 | 90 | 9.7 | 0.0 | 0.00 | 0.00 | 0.00 | 42 | 1065.3 |
| 20260509110119 | 19 | 90 | 14.5 | 0.0 | 0.00 | 0.00 | 0.00 | 42 | 1065.3 |
| 20260509110011 | 19 | 90 | 12.9 | 0.0 | 0.00 | 0.00 | 0.00 | 41 | 1065.3 |
| 20260509105850 | 20 | 67 | 9.7 | 0.0 | 0.00 | 0.00 | 0.00 | 41 | 1065.3 |
| 20260509105745 | 19 | 112 | 9.7 | 0.0 | 0.00 | 0.00 | 0.00 | 42 | 1065.3 |
| 20260509105631 | 19 | 90 | 3.2 | 0.0 | 0.00 | 0.00 | 0.00 | 43 | 1065.3 |
| 20260509105511 | 18 | 135 | 9.7 | 0.0 | 0.00 | 0.00 | 0.00 | 43 | 1065.3 |
| 20260509105344 | 18 | 112 | 6.4 | 0.0 | 0.00 | 0.00 | 0.00 | 43 | 1065.3 |
| 20260509105228 | 18 | 67 | 6.4 | 0.0 | 0.00 | 0.00 | 0.00 | 44 | 1065.3 |
| 20260509105116 | 18 | 45 | 8.0 | 0.0 | 0.00 | 0.00 | 0.00 | 44 | 1065.3 |
| 20260509104954 | 18 | 112 | 9.7 | 0.0 | 0.00 | 0.00 | 0.00 | 43 | 1065.3 |
| 20260509104841 | 18 | 90 | 12.9 | 0.0 | 0.00 | 0.00 | 0.00 | 43 | 1065.3 |
| 20260509104728 | 18 | 67 | 14.5 | 0.0 | 0.00 | 0.00 | 0.00 | 43 | 1065.3 |
| 20260509104615 | 18 | 112 | 8.0 | 0.0 | 0.00 | 0.00 | 0.00 | 44 | 1065.3 |
| 20260509104454 | 18 | 112 | 6.4 | 0.0 | 0.00 | 0.00 | 0.00 | 42 | 1065.3 |
| 20260509104343 | 18 | 135 | 4.8 | 0.0 | 0.00 | 0.00 | 0.00 | 42 | 1065.3 |
| 20260509104235 | 18 | 112 | 9.7 | 0.0 | 0.00 | 0.00 | 0.00 | 42 | 1065.4 |
| 20260509104114 | 18 | 112 | 0.0 | 0.0 | 0.00 | 0.00 | 0.00 | 42 | 1065.4 |
| 20260509103953 | 18 | 67 | 6.4 | 0.0 | 0.00 | 0.00 | 0.00 | 43 | 1065.4 |
| 20260509103823 | 18 | 135 | 6.4 | 0.0 | 0.00 | 0.00 | 0.00 | 44 | 1065.4 |
| 20260509103711 | 18 | 112 | 8.0 | 0.0 | 0.00 | 0.00 | 0.00 | 43 | 1065.5 |
| 20260509103557 | 18 | 67 | 8.0 | 0.0 | 0.00 | 0.00 | 0.00 | 42 | 1065.4 |
| 20260509103437 | 18 | 135 | 6.4 | 0.0 | 0.00 | 0.00 | 0.00 | 42 | 1065.4 |
| 20260509103323 | 18 | 157 | 11.3 | 0.0 | 0.00 | 0.00 | 0.00 | 44 | 1065.3 |
| 20260509103202 | 18 | 135 | 4.8 | 0.0 | 0.00 | 0.00 | 0.00 | 44 | 1065.4 |
| 20260509103048 | 18 | 112 | 9.7 | 0.0 | 0.00 | 0.00 | 0.00 | 44 | 1065.4 |
| 20260509102936 | 18 | 135 | 11.3 | 0.0 | 0.00 | 0.00 | 0.00 | 43 | 1065.4 |
| 20260509102814 | 18 | 135 | 3.2 | 0.0 | 0.00 | 0.00 | 0.00 | 42 | 1065.4 |
| 20260509102653 | 18 | 135 | 9.7 | 0.0 | 0.00 | 0.00 | 0.00 | 43 | 1065.4 |
| 20260509102524 | 18 | 90 | 11.3 | 0.0 | 0.00 | 0.00 | 0.00 | 41 | 1065.4 |
| 20260509102402 | 18 | 90 | 16.1 | 0.0 | 0.00 | 0.00 | 0.00 | 42 | 1065.5 |
| 20260509102235 | 19 | 135 | 9.7 | 0.0 | 0.00 | 0.00 | 0.00 | 42 | 1065.4 |
| 20260509102128 | 19 | 135 | 11.3 | 0.0 | 0.00 | 0.00 | 0.00 | 42 | 1065.5 |
| 20260509102022 | 19 | 112 | 6.4 | 0.0 | 0.00 | 0.00 | 0.00 | 40 | 1065.5 |
| 20260509101902 | 19 | 112 | 8.0 | 0.0 | 0.00 | 0.00 | 0.00 | 40 | 1065.4 |
| 20260509101749 | 20 | 90 | 11.3 | 0.0 | 0.00 | 0.00 | 0.00 | 41 | 1065.5 |
| 20260509101643 | 20 | 135 | 8.0 | 0.0 | 0.00 | 0.00 | 0.00 | 41 | 1065.5 |
| 20260509101530 | 20 | 135 | 4.8 | 0.0 | 0.00 | 0.00 | 0.00 | 40 | 1065.5 |
| 20260509101418 | 20 | 135 | 16.1 | 0.0 | 0.00 | 0.00 | 0.00 | 41 | 1065.4 |
| 20260509101312 | 20 | 90 | 12.9 | 0.0 | 0.00 | 0.00 | 0.00 | 40 | 1065.5 |
| 20260509101150 | 20 | 135 | 3.2 | 0.0 | 0.00 | 0.00 | 0.00 | 42 | 1065.6 |
| 20260509101037 | 20 | 112 | 8.0 | 0.0 | 0.00 | 0.00 | 0.00 | 43 | 1065.6 |
| 20260509100923 | 20 | 22 | 4.8 | 0.0 | 0.00 | 0.00 | 0.00 | 44 | 1065.5 |
| 20260509100803 | 19 | 45 | 6.4 | 0.0 | 0.00 | 0.00 | 0.00 | 44 | 1065.5 |
| 20260509100651 | 19 | 67 | 11.3 | 0.0 | 0.00 | 0.00 | 0.00 | 45 | 1065.6 |
| 20260509100545 | 18 | 90 | 3.2 | 0.0 | 0.00 | 0.00 | 0.00 | 45 | 1065.5 |
| 20260509100431 | 18 | 67 | 9.7 | 0.0 | 0.00 | 0.00 | 0.00 | 46 | 1065.6 |
| 20260509100320 | 18 | 90 | 3.2 | 0.0 | 0.00 | 0.00 | 0.00 | 45 | 1065.5 |
| 20260509100214 | 18 | 67 | 16.1 | 0.0 | 0.00 | 0.00 | 0.00 | 46 | 1065.6 |
| 20260509095948 | 18 | 90 | 0.0 | 0.0 | 0.00 | 0.00 | 0.00 | 45 | 1065.6 |
| 20260509095843 | 18 | 135 | 9.7 | 0.0 | 0.00 | 0.00 | 0.00 | 45 | 1065.7 |
| 20260509095723 | 18 | 90 | 9.7 | 0.0 | 0.00 | 0.00 | 0.00 | 45 | 1065.6 |
| 20260509095608 | 18 | 112 | 6.4 | 0.0 | 0.00 | 0.00 | 0.00 | 44 | 1065.6 |
| 20260509095455 | 18 | 112 | 11.3 | 0.0 | 0.00 | 0.00 | 0.00 | 43 | 1065.7 |
| 20260509095326 | 18 | 67 | 8.0 | 0.0 | 0.00 | 0.00 | 0.00 | 43 | 1065.6 |
| 20260509095213 | 18 | 135 | 9.7 | 0.0 | 0.00 | 0.00 | 0.00 | 42 | 1065.6 |
| 20260509095052 | 19 | 135 | 16.1 | 0.0 | 0.00 | 0.00 | 0.00 | 42 | 1065.7 |
| 20260509094930 | 19 | 90 | 11.3 | 0.0 | 0.00 | 0.00 | 0.00 | 42 | 1065.7 |
| 20260509094801 | 19 | 112 | 9.7 | 0.0 | 0.00 | 0.00 | 0.00 | 42 | 1065.7 |
| 20260509094648 | 19 | 112 | 11.3 | 0.0 | 0.00 | 0.00 | 0.00 | 43 | 1065.7 |
| 20260509094529 | 19 | 135 | 8.0 | 0.0 | 0.00 | 0.00 | 0.00 | 43 | 1065.7 |
| 20260509094422 | 19 | 112 | 6.4 | 0.0 | 0.00 | 0.00 | 0.00 | 42 | 1065.7 |
| 20260509094300 | 19 | 112 | 0.0 | 0.0 | 0.00 | 0.00 | 0.00 | 43 | 1065.7 |
| 20260509094132 | 19 | 90 | 6.4 | 0.0 | 0.00 | 0.00 | 0.00 | 42 | 1065.8 |
| 20260509094018 | 19 | 90 | 6.4 | 0.0 | 0.00 | 0.00 | 0.00 | 41 | 1065.8 |
| 20260509093859 | 20 | 90 | 9.7 | 0.0 | 0.00 | 0.00 | 0.00 | 41 | 1065.8 |
| 20260509093743 | 20 | 90 | 6.4 | 0.0 | 0.00 | 0.00 | 0.00 | 41 | 1065.8 |
| 20260509093631 | 20 | 112 | 8.0 | 0.0 | 0.00 | 0.00 | 0.00 | 41 | 1065.8 |
| 20260509093517 | 20 | 112 | 9.7 | 0.0 | 0.00 | 0.00 | 0.00 | 42 | 1065.9 |
| 20260509093357 | 19 | 112 | 9.7 | 0.0 | 0.00 | 0.00 | 0.00 | 43 | 1065.9 |
| 20260509093244 | 18 | 112 | 9.7 | 0.0 | 0.00 | 0.00 | 0.00 | 43 | 1065.9 |
| 20260509093130 | 18 | 135 | 9.7 | 0.0 | 0.00 | 0.00 | 0.00 | 43 | 1065.9 |
| 20260509093010 | 18 | 135 | 4.8 | 0.0 | 0.00 | 0.00 | 0.00 | 44 | 1065.9 |
| 20260509092856 | 18 | 112 | 8.0 | 0.0 | 0.00 | 0.00 | 0.00 | 45 | 1065.9 |
| 20260509092737 | 18 | 135 | 3.2 | 0.0 | 0.00 | 0.00 | 0.00 | 45 | 1065.9 |
| 20260509092630 | 18 | 180 | 8.0 | 0.0 | 0.00 | 0.00 | 0.00 | 44 | 1065.9 |
| 20260509092518 | 18 | 157 | 9.7 | 0.0 | 0.00 | 0.00 | 0.00 | 44 | 1065.9 |
| 20260509092412 | 18 | 112 | 11.3 | 0.0 | 0.00 | 0.00 | 0.00 | 43 | 1065.9 |
| 20260509092259 | 18 | 135 | 14.5 | 0.0 | 0.00 | 0.00 | 0.00 | 44 | 1065.9 |
| 20260509092138 | 18 | 157 | 12.9 | 0.0 | 0.00 | 0.00 | 0.00 | 44 | 1065.8 |
| 20260509092017 | 18 | 135 | 8.0 | 0.0 | 0.00 | 0.00 | 0.00 | 44 | 1065.9 |
| 20260509091855 | 18 | 180 | 11.3 | 0.0 | 0.00 | 0.00 | 0.00 | 45 | 1065.9 |
| 20260509091734 | 18 | 135 | 3.2 | 0.0 | 0.00 | 0.00 | 0.00 | 44 | 1065.9 |
| 20260509091613 | 18 | 135 | 8.0 | 0.0 | 0.00 | 0.00 | 0.00 | 42 | 1065.8 |
| 20260509091500 | 18 | 157 | 9.7 | 0.0 | 0.00 | 0.00 | 0.00 | 41 | 1065.9 |
| 20260509091332 | 19 | 180 | 9.7 | 0.0 | 0.00 | 0.00 | 0.00 | 42 | 1065.9 |
| 20260509091210 | 19 | 157 | 9.7 | 0.0 | 0.00 | 0.00 | 0.00 | 42 | 1065.9 |
| 20260509091058 | 19 | 135 | 0.0 | 0.0 | 0.00 | 0.00 | 0.00 | 42 | 1065.9 |
| 20260509090943 | 19 | 135 | 8.0 | 0.0 | 0.00 | 0.00 | 0.00 | 42 | 1065.9 |
| 20260509090831 | 19 | 135 | 12.9 | 0.0 | 0.00 | 0.00 | 0.00 | 42 | 1065.9 |
| 20260509090718 | 19 | 135 | 11.3 | 0.0 | 0.00 | 0.00 | 0.00 | 42 | 1065.9 |
| 20260509090606 | 19 | 157 | 14.5 | 0.0 | 0.00 | 0.00 | 0.00 | 42 | 1065.8 |
| 20260509090459 | 19 | 112 | 1.6 | 0.0 | 0.00 | 0.00 | 0.00 | 43 | 1065.9 |
| 20260509090338 | 18 | 135 | 12.9 | 0.0 | 0.00 | 0.00 | 0.00 | 44 | 1065.8 |
| 20260509090216 | 18 | 90 | 3.2 | 0.0 | 0.00 | 0.00 | 0.00 | 44 | 1065.9 |
| 20260509090055 | 18 | 135 | 6.4 | 0.0 | 0.00 | 0.00 | 0.00 | 44 | 1065.8 |
| 20260509085934 | 18 | 135 | 6.4 | 0.0 | 0.00 | 0.00 | 0.00 | 42 | 1065.8 |
| 20260509085821 | 18 | 157 | 9.7 | 0.0 | 0.00 | 0.00 | 0.00 | 41 | 1065.8 |
| 20260509085658 | 18 | 157 | 14.5 | 0.0 | 0.00 | 0.00 | 0.00 | 40 | 1065.8 |
| 20260509085530 | 19 | 135 | 16.1 | 0.0 | 0.00 | 0.00 | 0.00 | 39 | 1065.8 |
| 20260509085410 | 19 | 135 | 20.9 | 0.0 | 0.00 | 0.00 | 0.00 | 40 | 1065.8 |
| 20260509085306 | 19 | 112 | 11.3 | 0.0 | 0.00 | 0.00 | 0.00 | 42 | 1065.7 |
| 20260509085143 | 18 | 90 | 3.2 | 0.0 | 0.00 | 0.00 | 0.00 | 44 | 1065.7 |
| 20260509085030 | 18 | 135 | 9.7 | 0.0 | 0.00 | 0.00 | 0.00 | 44 | 1065.7 |
| 20260509084924 | 17 | 90 | 16.1 | 0.0 | 0.00 | 0.00 | 0.00 | 43 | 1065.8 |
| 20260509084803 | 17 | 135 | 9.7 | 0.0 | 0.00 | 0.00 | 0.00 | 42 | 1065.8 |
| 20260509084643 | 17 | 90 | 14.5 | 0.0 | 0.00 | 0.00 | 0.00 | 43 | 1065.8 |
| 20260509084537 | 17 | 135 | 9.7 | 0.0 | 0.00 | 0.00 | 0.00 | 43 | 1065.8 |
| 20260509084424 | 17 | 112 | 9.7 | 0.0 | 0.00 | 0.00 | 0.00 | 43 | 1065.8 |
| 20260509084303 | 18 | 112 | 8.0 | 0.0 | 0.00 | 0.00 | 0.00 | 43 | 1065.8 |
| 20260509084142 | 18 | 112 | 9.7 | 0.0 | 0.00 | 0.00 | 0.00 | 42 | 1065.8 |
| 20260509084022 | 18 | 135 | 6.4 | 0.0 | 0.00 | 0.00 | 0.00 | 43 | 1065.8 |
| 20260509083918 | 18 | 112 | 4.8 | 0.0 | 0.00 | 0.00 | 0.00 | 41 | 1065.8 |
| 20260509083813 | 18 | 45 | 8.0 | 0.0 | 0.00 | 0.00 | 0.00 | 42 | 1065.8 |
| 20260509083705 | 19 | 112 | 6.4 | 0.0 | 0.00 | 0.00 | 0.00 | 41 | 1065.8 |
| 20260509083544 | 20 | 135 | 12.9 | 0.0 | 0.00 | 0.00 | 0.00 | 39 | 1065.8 |
| 20260509083423 | 20 | 135 | 11.3 | 0.0 | 0.00 | 0.00 | 0.00 | 39 | 1065.8 |
| 20260509083310 | 20 | 112 | 0.0 | 0.0 | 0.00 | 0.00 | 0.00 | 37 | 1065.8 |
| 20260509083157 | 20 | 67 | 11.3 | 0.0 | 0.00 | 0.00 | 0.00 | 37 | 1065.8 |
| 20260509083034 | 21 | 112 | 11.3 | 0.0 | 0.00 | 0.00 | 0.00 | 39 | 1065.8 |
| 20260509082922 | 21 | 90 | 11.3 | 0.0 | 0.00 | 0.00 | 0.00 | 39 | 1065.9 |
| 20260509082808 | 21 | 112 | 11.3 | 0.0 | 0.00 | 0.00 | 0.00 | 39 | 1065.9 |
| 20260509082659 | 21 | 22 | 4.8 | 0.0 | 0.00 | 0.00 | 0.00 | 40 | 1066.0 |
| 20260509082551 | 21 | 135 | 16.1 | 0.0 | 0.00 | 0.00 | 0.00 | 39 | 1066.0 |
| 20260509082440 | 21 | 135 | 9.7 | 0.0 | 0.00 | 0.00 | 0.00 | 40 | 1066.0 |
| 20260509082333 | 21 | 157 | 8.0 | 0.0 | 0.00 | 0.00 | 0.00 | 40 | 1066.1 |
| 20260509082219 | 21 | 157 | 11.3 | 0.0 | 0.00 | 0.00 | 0.00 | 41 | 1066.0 |
| 20260509082101 | 21 | 135 | 8.0 | 0.0 | 0.00 | 0.00 | 0.00 | 41 | 1066.0 |
| 20260509081947 | 21 | 112 | 12.9 | 0.0 | 0.00 | 0.00 | 0.00 | 42 | 1066.0 |
| 20260509081843 | 21 | 112 | 0.0 | 0.0 | 0.00 | 0.00 | 0.00 | 43 | 1066.0 |
| 20260509081735 | 20 | 112 | 4.8 | 0.0 | 0.00 | 0.00 | 0.00 | 43 | 1066.1 |
| 20260509081622 | 20 | 135 | 9.7 | 0.0 | 0.00 | 0.00 | 0.00 | 43 | 1066.0 |
| 20260509081454 | 20 | 135 | 8.0 | 0.0 | 0.00 | 0.00 | 0.00 | 42 | 1066.0 |
| 20260509081340 | 20 | 67 | 9.7 | 0.0 | 0.00 | 0.00 | 0.00 | 42 | 1066.0 |
| 20260509081226 | 20 | 112 | 9.7 | 0.0 | 0.00 | 0.00 | 0.00 | 41 | 1066.1 |
| 20260509081114 | 20 | 90 | 11.3 | 0.0 | 0.00 | 0.00 | 0.00 | 42 | 1066.1 |
| 20260509080953 | 21 | 90 | 16.1 | 0.0 | 0.00 | 0.00 | 0.00 | 42 | 1066.2 |
| 20260509080847 | 21 | 112 | 9.7 | 0.0 | 0.00 | 0.00 | 0.00 | 43 | 1066.1 |
| 20260509080725 | 21 | 112 | 14.5 | 0.0 | 0.00 | 0.00 | 0.00 | 44 | 1066.1 |
| 20260509080606 | 21 | 112 | 0.0 | 0.0 | 0.00 | 0.00 | 0.00 | 44 | 1066.0 |
| 20260509080500 | 21 | 135 | 0.0 | 0.0 | 0.00 | 0.00 | 0.00 | 45 | 1066.1 |
| 20260509080355 | 20 | 135 | 0.0 | 0.0 | 0.00 | 0.00 | 0.00 | 44 | 1066.1 |
| 20260509080250 | 20 | 135 | 3.2 | 0.0 | 0.00 | 0.00 | 0.00 | 43 | 1065.9 |
| 20260509080129 | 21 | 135 | 9.7 | 0.0 | 0.00 | 0.00 | 0.00 | 43 | 1066.0 |
| 20260509080025 | 21 | 135 | 11.3 | 0.0 | 0.00 | 0.00 | 0.00 | 42 | 1066.0 |
| 20260509075918 | 21 | 112 | 4.8 | 0.0 | 0.00 | 0.00 | 0.00 | 43 | 1066.1 |
| 20260509075757 | 21 | 67 | 3.2 | 0.0 | 0.00 | 0.00 | 0.00 | 44 | 1066.0 |
| 20260509075646 | 21 | 112 | 4.8 | 0.0 | 0.00 | 0.00 | 0.00 | 45 | 1066.2 |
| 20260509075531 | 20 | 157 | 6.4 | 0.0 | 0.00 | 0.00 | 0.00 | 46 | 1066.0 |
| 20260509075409 | 20 | 135 | 3.2 | 0.0 | 0.00 | 0.00 | 0.00 | 45 | 1066.1 |
| 20260509075239 | 20 | 135 | 9.7 | 0.0 | 0.00 | 0.00 | 0.00 | 45 | 1066.2 |
| 20260509075120 | 21 | 67 | 6.4 | 0.0 | 0.00 | 0.00 | 0.00 | 44 | 1066.0 |
| 20260509074957 | 21 | 135 | 12.9 | 0.0 | 0.00 | 0.00 | 0.00 | 45 | 1066.1 |
| 20260509074845 | 21 | 157 | 9.7 | 0.0 | 0.00 | 0.00 | 0.00 | 45 | 1066.2 |
| 20260509074734 | 21 | 135 | 11.3 | 0.0 | 0.00 | 0.00 | 0.00 | 46 | 1066.0 |
| 20260509074626 | 21 | 112 | 8.0 | 0.0 | 0.00 | 0.00 | 0.00 | 47 | 1066.1 |
| 20260509074506 | 20 | 90 | 8.0 | 0.0 | 0.00 | 0.00 | 0.00 | 48 | 1066.1 |
| 20260509074352 | 20 | 112 | 8.0 | 0.0 | 0.00 | 0.00 | 0.00 | 48 | 1066.2 |
| 20260509074233 | 20 | 135 | 9.7 | 0.0 | 0.00 | 0.00 | 0.00 | 48 | 1066.2 |
| 20260509074125 | 20 | 135 | 3.2 | 0.0 | 0.00 | 0.00 | 0.00 | 49 | 1066.1 |
| 20260509074012 | 20 | 135 | 1.6 | 0.0 | 0.00 | 0.00 | 0.00 | 48 | 1066.1 |
| 20260509073859 | 20 | 135 | 8.0 | 0.0 | 0.00 | 0.00 | 0.00 | 47 | 1066.1 |
| 20260509073730 | 20 | 67 | 9.7 | 0.0 | 0.00 | 0.00 | 0.00 | 49 | 1066.1 |
| 20260509073609 | 20 | 135 | 6.4 | 0.0 | 0.00 | 0.00 | 0.00 | 49 | 1066.1 |
| 20260509073456 | 20 | 112 | 11.3 | 0.0 | 0.00 | 0.00 | 0.00 | 49 | 1066.1 |
| 20260509073343 | 20 | 112 | 9.7 | 0.0 | 0.00 | 0.00 | 0.00 | 50 | 1066.0 |
| 20260509073230 | 19 | 135 | 6.4 | 0.0 | 0.00 | 0.00 | 0.00 | 49 | 1066.2 |
| 20260509073108 | 19 | 135 | 11.3 | 0.0 | 0.00 | 0.00 | 0.00 | 50 | 1066.1 |
| 20260509072954 | 19 | 135 | 8.0 | 0.0 | 0.00 | 0.00 | 0.00 | 50 | 1066.1 |
| 20260509072834 | 19 | 135 | 11.3 | 0.0 | 0.00 | 0.00 | 0.00 | 50 | 1066.0 |
| 20260509072713 | 19 | 135 | 6.4 | 0.0 | 0.00 | 0.00 | 0.00 | 49 | 1066.0 |
| 20260509072559 | 20 | 157 | 8.0 | 0.0 | 0.00 | 0.00 | 0.00 | 49 | 1066.0 |
| 20260509072439 | 20 | 157 | 14.5 | 0.0 | 0.00 | 0.00 | 0.00 | 49 | 1065.9 |
| 20260509072325 | 20 | 112 | 8.0 | 0.0 | 0.00 | 0.00 | 0.00 | 51 | 1065.9 |
| 20260509072212 | 20 | 135 | 8.0 | 0.0 | 0.00 | 0.00 | 0.00 | 51 | 1065.9 |
| 20260509072101 | 20 | 135 | 8.0 | 0.0 | 0.00 | 0.00 | 0.00 | 51 | 1066.0 |
| 20260509071953 | 19 | 135 | 11.3 | 0.0 | 0.00 | 0.00 | 0.00 | 52 | 1066.0 |
| 20260509071841 | 19 | 135 | 0.0 | 0.0 | 0.00 | 0.00 | 0.00 | 53 | 1066.0 |
| 20260509071728 | 18 | 157 | 6.4 | 0.0 | 0.00 | 0.00 | 0.00 | 54 | 1066.1 |
| 20260509071614 | 18 | 112 | 9.7 | 0.0 | 0.00 | 0.00 | 0.00 | 54 | 1066.0 |
| 20260509071501 | 18 | 135 | 0.0 | 0.0 | 0.00 | 0.00 | 0.00 | 54 | 1065.9 |
| 20260509071348 | 18 | 180 | 9.7 | 0.0 | 0.00 | 0.00 | 0.00 | 54 | 1066.0 |
| 20260509071235 | 18 | 112 | 8.0 | 0.0 | 0.00 | 0.00 | 0.00 | 54 | 1066.0 |
| 20260509071123 | 18 | 135 | 11.3 | 0.0 | 0.00 | 0.00 | 0.00 | 54 | 1066.1 |
| 20260509071018 | 18 | 135 | 9.7 | 0.0 | 0.00 | 0.00 | 0.00 | 54 | 1066.2 |
| 20260509070903 | 18 | 135 | 3.2 | 0.0 | 0.00 | 0.00 | 0.00 | 56 | 1066.1 |
| 20260509070744 | 17 | 135 | 9.7 | 0.0 | 0.00 | 0.00 | 0.00 | 56 | 1066.1 |
| 20260509070637 | 17 | 135 | 12.9 | 0.0 | 0.00 | 0.00 | 0.00 | 56 | 1066.0 |
| 20260509070524 | 17 | 135 | 4.8 | 0.0 | 0.00 | 0.00 | 0.00 | 56 | 1066.0 |
| 20260509070403 | 17 | 135 | 8.0 | 0.0 | 0.00 | 0.00 | 0.00 | 55 | 1066.0 |
| 20260509070250 | 17 | 135 | 9.7 | 0.0 | 0.00 | 0.00 | 0.00 | 56 | 1065.9 |
| 20260509070129 | 17 | 157 | 11.3 | 0.0 | 0.00 | 0.00 | 0.00 | 57 | 1066.1 |
| 20260509070008 | 17 | 135 | 0.0 | 0.0 | 0.00 | 0.00 | 0.00 | 57 | 1066.3 |
| 20260509065854 | 17 | 157 | 3.2 | 0.0 | 0.00 | 0.00 | 0.00 | 56 | 1066.1 |
| 20260509065740 | 17 | 135 | 8.0 | 0.0 | 0.00 | 0.00 | 0.00 | 57 | 1066.0 |
| 20260509065627 | 17 | 157 | 4.8 | 0.0 | 0.00 | 0.00 | 0.00 | 58 | 1065.9 |
| 20260509065457 | 16 | 157 | 8.0 | 0.0 | 0.00 | 0.00 | 0.00 | 57 | 1066.0 |
| 20260509065329 | 16 | 135 | 9.7 | 0.0 | 0.00 | 0.00 | 0.00 | 59 | 1066.0 |
| 20260509065224 | 16 | 112 | 8.0 | 0.0 | 0.00 | 0.00 | 0.00 | 59 | 1065.9 |
| 20260509065110 | 16 | 135 | 8.0 | 0.0 | 0.00 | 0.00 | 0.00 | 59 | 1066.0 |
| 20260509064949 | 16 | 112 | 9.7 | 0.0 | 0.00 | 0.00 | 0.00 | 60 | 1065.9 |
| 20260509064827 | 16 | 135 | 6.4 | 0.0 | 0.00 | 0.00 | 0.00 | 60 | 1065.9 |
| 20260509064707 | 16 | 135 | 9.7 | 0.0 | 0.00 | 0.00 | 0.00 | 61 | 1066.0 |
| 20260509064554 | 15 | 157 | 6.4 | 0.0 | 0.00 | 0.00 | 0.00 | 61 | 1065.9 |
| 20260509064448 | 15 | 180 | 11.3 | 0.0 | 0.00 | 0.00 | 0.00 | 61 | 1066.0 |
| 20260509064328 | 15 | 180 | 12.9 | 0.0 | 0.00 | 0.00 | 0.00 | 61 | 1065.9 |
| 20260509064222 | 15 | 135 | 8.0 | 0.0 | 0.00 | 0.00 | 0.00 | 61 | 1066.0 |
| 20260509064109 | 15 | 157 | 6.4 | 0.0 | 0.00 | 0.00 | 0.00 | 62 | 1066.0 |
| 20260509063956 | 15 | 135 | 6.4 | 0.0 | 0.00 | 0.00 | 0.00 | 62 | 1065.9 |
| 20260509063834 | 15 | 135 | 12.9 | 0.0 | 0.00 | 0.00 | 0.00 | 62 | 1065.9 |
| 20260509063714 | 15 | 157 | 16.1 | 0.0 | 0.00 | 0.00 | 0.00 | 62 | 1065.9 |
| 20260509063609 | 15 | 135 | 9.7 | 0.0 | 0.00 | 0.00 | 0.00 | 62 | 1066.0 |
| 20260509063449 | 15 | 112 | 12.9 | 0.0 | 0.00 | 0.00 | 0.00 | 62 | 1066.0 |
| 20260509063344 | 15 | 135 | 4.8 | 0.0 | 0.00 | 0.00 | 0.00 | 62 | 1066.0 |
| 20260509063237 | 15 | 112 | 8.0 | 0.0 | 0.00 | 0.00 | 0.00 | 63 | 1065.9 |
| 20260509063124 | 15 | 112 | 11.3 | 0.0 | 0.00 | 0.00 | 0.00 | 63 | 1065.9 |
| 20260509063011 | 15 | 135 | 9.7 | 0.0 | 0.00 | 0.00 | 0.00 | 63 | 1066.0 |
| 20260509062906 | 15 | 112 | 8.0 | 0.0 | 0.00 | 0.00 | 0.00 | 63 | 1066.0 |
| 20260509062737 | 15 | 157 | 12.9 | 0.0 | 0.00 | 0.00 | 0.00 | 62 | 1066.0 |
| 20260509062624 | 15 | 135 | 12.9 | 0.0 | 0.00 | 0.00 | 0.00 | 62 | 1066.0 |
| 20260509062456 | 15 | 135 | 9.7 | 0.0 | 0.00 | 0.00 | 0.00 | 63 | 1065.9 |
| 20260509062351 | 15 | 135 | 12.9 | 0.0 | 0.00 | 0.00 | 0.00 | 63 | 1066.0 |
| 20260509062244 | 15 | 135 | 9.7 | 0.0 | 0.00 | 0.00 | 0.00 | 63 | 1066.0 |
| 20260509062131 | 15 | 135 | 9.7 | 0.0 | 0.00 | 0.00 | 0.00 | 63 | 1066.0 |
| 20260509062026 | 15 | 135 | 9.7 | 0.0 | 0.00 | 0.00 | 0.00 | 63 | 1066.0 |
| 20260509061913 | 15 | 135 | 12.9 | 0.0 | 0.00 | 0.00 | 0.00 | 63 | 1066.0 |
| 20260509061801 | 15 | 157 | 9.7 | 0.0 | 0.00 | 0.00 | 0.00 | 62 | 1066.0 |
| 20260509061655 | 15 | 112 | 11.3 | 0.0 | 0.00 | 0.00 | 0.00 | 62 | 1066.0 |
| 20260509061542 | 15 | 135 | 16.1 | 0.0 | 0.00 | 0.00 | 0.00 | 62 | 1066.1 |
| 20260509061428 | 15 | 157 | 14.5 | 0.0 | 0.00 | 0.00 | 0.00 | 63 | 1066.0 |
| 20260509061259 | 15 | 157 | 3.2 | 0.0 | 0.00 | 0.00 | 0.00 | 63 | 1065.9 |
| 20260509061145 | 15 | 112 | 3.2 | 0.0 | 0.00 | 0.00 | 0.00 | 63 | 1065.9 |
| 20260509061025 | 15 | 157 | 6.4 | 0.0 | 0.00 | 0.00 | 0.00 | 63 | 1066.0 |
| 20260509060913 | 15 | 112 | 8.0 | 0.0 | 0.00 | 0.00 | 0.00 | 64 | 1066.0 |
| 20260509060759 | 15 | 135 | 3.2 | 0.0 | 0.00 | 0.00 | 0.00 | 64 | 1066.0 |
| 20260509060654 | 15 | 135 | 6.4 | 0.0 | 0.00 | 0.00 | 0.00 | 64 | 1066.0 |
| 20260509060548 | 15 | 135 | 6.4 | 0.0 | 0.00 | 0.00 | 0.00 | 65 | 1066.0 |
| 20260509060435 | 15 | 135 | 4.8 | 0.0 | 0.00 | 0.00 | 0.00 | 64 | 1066.0 |
| 20260509060321 | 15 | 157 | 8.0 | 0.0 | 0.00 | 0.00 | 0.00 | 64 | 1065.9 |
| 20260509060211 | 15 | 157 | 9.7 | 0.0 | 0.00 | 0.00 | 0.00 | 65 | 1066.0 |
| 20260509060106 | 15 | 135 | 6.4 | 0.0 | 0.00 | 0.00 | 0.00 | 65 | 1066.0 |
| 20260509055958 | 15 | 135 | 8.0 | 0.0 | 0.00 | 0.00 | 0.00 | 65 | 1066.0 |
| 20260509055836 | 15 | 157 | 4.8 | 0.0 | 0.00 | 0.00 | 0.00 | 65 | 1066.0 |
| 20260509055716 | 14 | 135 | 4.8 | 0.0 | 0.00 | 0.00 | 0.00 | 65 | 1066.0 |
| 20260509055603 | 14 | 157 | 3.2 | 0.0 | 0.00 | 0.00 | 0.00 | 65 | 1066.0 |
| 20260509055458 | 14 | 157 | 9.7 | 0.0 | 0.00 | 0.00 | 0.00 | 65 | 1065.9 |
| 20260509055329 | 14 | 112 | 3.2 | 0.0 | 0.00 | 0.00 | 0.00 | 65 | 1065.9 |
| 20260509055215 | 14 | 135 | 11.3 | 0.0 | 0.00 | 0.00 | 0.00 | 66 | 1066.0 |
| 20260509055046 | 14 | 135 | 8.0 | 0.0 | 0.00 | 0.00 | 0.00 | 67 | 1065.9 |
| 20260509054933 | 14 | 135 | 3.2 | 0.0 | 0.00 | 0.00 | 0.00 | 67 | 1065.9 |
| 20260509054828 | 13 | 135 | 1.6 | 0.0 | 0.00 | 0.00 | 0.00 | 67 | 1065.9 |
| 20260509054706 | 14 | 135 | 9.7 | 0.0 | 0.00 | 0.00 | 0.00 | 67 | 1065.9 |
| 20260509054545 | 14 | 135 | 8.0 | 0.0 | 0.00 | 0.00 | 0.00 | 67 | 1065.9 |
| 20260509054417 | 13 | 135 | 4.8 | 0.0 | 0.00 | 0.00 | 0.00 | 67 | 1065.9 |
| 20260509054312 | 13 | 135 | 8.0 | 0.0 | 0.00 | 0.00 | 0.00 | 67 | 1066.0 |
| 20260509054207 | 13 | 135 | 8.0 | 0.0 | 0.00 | 0.00 | 0.00 | 68 | 1065.9 |
| 20260509054052 | 13 | 135 | 3.2 | 0.0 | 0.00 | 0.00 | 0.00 | 68 | 1065.9 |
| 20260509053924 | 13 | 135 | 6.4 | 0.0 | 0.00 | 0.00 | 0.00 | 68 | 1065.8 |
| 20260509053811 | 13 | 135 | 8.0 | 0.0 | 0.00 | 0.00 | 0.00 | 68 | 1065.9 |
| 20260509053705 | 13 | 135 | 9.7 | 0.0 | 0.00 | 0.00 | 0.00 | 69 | 1065.9 |
| 20260509053552 | 13 | 135 | 8.0 | 0.0 | 0.00 | 0.00 | 0.00 | 70 | 1065.8 |
| 20260509053439 | 13 | 135 | 0.0 | 0.0 | 0.00 | 0.00 | 0.00 | 70 | 1065.9 |
| 20260509053325 | 13 | 135 | 1.6 | 0.0 | 0.00 | 0.00 | 0.00 | 70 | 1065.8 |
| 20260509053212 | 13 | 135 | 3.2 | 0.0 | 0.00 | 0.00 | 0.00 | 70 | 1065.8 |
| 20260509053059 | 13 | 135 | 6.4 | 0.0 | 0.00 | 0.00 | 0.00 | 70 | 1065.8 |
| 20260509052947 | 13 | 135 | 6.4 | 0.0 | 0.00 | 0.00 | 0.00 | 70 | 1065.8 |
| 20260509052833 | 13 | 135 | 6.4 | 0.0 | 0.00 | 0.00 | 0.00 | 71 | 1065.8 |
| 20260509052727 | 12 | 135 | 3.2 | 0.0 | 0.00 | 0.00 | 0.00 | 71 | 1065.9 |
| 20260509052606 | 12 | 135 | 9.7 | 0.0 | 0.00 | 0.00 | 0.00 | 71 | 1065.8 |
| 20260509052447 | 12 | 135 | 0.0 | 0.0 | 0.00 | 0.00 | 0.00 | 72 | 1065.8 |
| 20260509052330 | 12 | 135 | 0.0 | 0.0 | 0.00 | 0.00 | 0.00 | 72 | 1065.8 |
| 20260509052211 | 12 | 135 | 8.0 | 0.0 | 0.00 | 0.00 | 0.00 | 72 | 1065.8 |
| 20260509052105 | 12 | 135 | 9.7 | 0.0 | 0.00 | 0.00 | 0.00 | 72 | 1065.7 |
| 20260509051954 | 12 | 135 | 6.4 | 0.0 | 0.00 | 0.00 | 0.00 | 72 | 1065.8 |
| 20260509051839 | 12 | 157 | 8.0 | 0.0 | 0.00 | 0.00 | 0.00 | 72 | 1065.8 |
| 20260509051734 | 12 | 135 | 8.0 | 0.0 | 0.00 | 0.00 | 0.00 | 73 | 1065.8 |
| 20260509051614 | 12 | 135 | 9.7 | 0.0 | 0.00 | 0.00 | 0.00 | 73 | 1065.8 |
| 20260509051459 | 12 | 135 | 8.0 | 0.0 | 0.00 | 0.00 | 0.00 | 73 | 1065.8 |
| 20260509051345 | 12 | 135 | 6.4 | 0.0 | 0.00 | 0.00 | 0.00 | 74 | 1065.7 |
| 20260509051224 | 12 | 135 | 4.8 | 0.0 | 0.00 | 0.00 | 0.00 | 74 | 1065.9 |
| 20260509051106 | 11 | 112 | 6.4 | 0.0 | 0.00 | 0.00 | 0.00 | 75 | 1065.8 |
| 20260509050957 | 11 | 135 | 3.2 | 0.0 | 0.00 | 0.00 | 0.00 | 75 | 1065.7 |
| 20260509050844 | 11 | 135 | 3.2 | 0.0 | 0.00 | 0.00 | 0.00 | 75 | 1065.7 |
| 20260509050724 | 11 | 135 | 4.8 | 0.0 | 0.00 | 0.00 | 0.00 | 76 | 1065.7 |
| 20260509050611 | 11 | 135 | 6.4 | 0.0 | 0.00 | 0.00 | 0.00 | 76 | 1065.7 |
| 20260509050506 | 11 | 112 | 4.8 | 0.0 | 0.00 | 0.00 | 0.00 | 76 | 1065.6 |
| 20260509050401 | 11 | 135 | 9.7 | 0.0 | 0.00 | 0.00 | 0.00 | 76 | 1065.6 |
| 20260509050255 | 11 | 135 | 4.8 | 0.0 | 0.00 | 0.00 | 0.00 | 76 | 1065.6 |
| 20260509050149 | 11 | 112 | 6.4 | 0.0 | 0.00 | 0.00 | 0.00 | 76 | 1065.6 |
| 20260509050034 | 11 | 135 | 9.7 | 0.0 | 0.00 | 0.00 | 0.00 | 77 | 1065.6 |
| 20260509045913 | 11 | 135 | 9.7 | 0.0 | 0.00 | 0.00 | 0.00 | 77 | 1065.6 |
| 20260509045806 | 11 | 135 | 9.7 | 0.0 | 0.00 | 0.00 | 0.00 | 77 | 1065.5 |
| 20260509045652 | 11 | 135 | 6.4 | 0.0 | 0.00 | 0.00 | 0.00 | 78 | 1065.6 |
| 20260509045546 | 11 | 135 | 6.4 | 0.0 | 0.00 | 0.00 | 0.00 | 78 | 1065.6 |
| 20260509045426 | 11 | 135 | 6.4 | 0.0 | 0.00 | 0.00 | 0.00 | 78 | 1065.6 |
| 20260509045320 | 11 | 135 | 4.8 | 0.0 | 0.00 | 0.00 | 0.00 | 79 | 1065.6 |
| 20260509045206 | 10 | 112 | 4.8 | 0.0 | 0.00 | 0.00 | 0.00 | 79 | 1065.6 |
| 20260509045052 | 10 | 112 | 6.4 | 0.0 | 0.00 | 0.00 | 0.00 | 79 | 1065.5 |
| 20260509044934 | 10 | 135 | 4.8 | 0.0 | 0.00 | 0.00 | 0.00 | 80 | 1065.6 |
| 20260509044819 | 10 | 135 | 4.8 | 0.0 | 0.00 | 0.00 | 0.00 | 80 | 1065.6 |
| 20260509044706 | 10 | 135 | 8.0 | 0.0 | 0.00 | 0.00 | 0.00 | 81 | 1065.6 |
| 20260509044600 | 10 | 135 | 4.8 | 0.0 | 0.00 | 0.00 | 0.00 | 81 | 1065.6 |
| 20260509044447 | 10 | 135 | 3.2 | 0.0 | 0.00 | 0.00 | 0.00 | 82 | 1065.6 |
| 20260509044342 | 10 | 135 | 3.2 | 0.0 | 0.00 | 0.00 | 0.00 | 82 | 1065.6 |
| 20260509044235 | 10 | 135 | 4.8 | 0.0 | 0.00 | 0.00 | 0.00 | 82 | 1065.6 |
| 20260509044114 | 9 | 135 | 4.8 | 0.0 | 0.00 | 0.00 | 0.00 | 83 | 1065.6 |
| 20260509044000 | 9 | 135 | 8.0 | 0.0 | 0.00 | 0.00 | 0.00 | 83 | 1065.5 |
| 20260509043845 | 9 | 135 | 8.0 | 0.0 | 0.00 | 0.00 | 0.00 | 84 | 1065.6 |
| 20260509043726 | 9 | 112 | 4.8 | 0.0 | 0.00 | 0.00 | 0.00 | 84 | 1065.6 |
| 20260509043618 | 8 | 135 | 1.6 | 0.0 | 0.00 | 0.00 | 0.00 | 84 | 1065.6 |
| 20260509043505 | 8 | 135 | 6.4 | 0.0 | 0.00 | 0.00 | 0.00 | 85 | 1065.6 |
| 20260509043359 | 8 | 112 | 6.4 | 0.0 | 0.00 | 0.00 | 0.00 | 85 | 1065.6 |
| 20260509043232 | 8 | 135 | 4.8 | 0.0 | 0.00 | 0.00 | 0.00 | 85 | 1065.6 |
| 20260509043127 | 8 | 135 | 6.4 | 0.0 | 0.00 | 0.00 | 0.00 | 86 | 1065.5 |
| 20260509043020 | 8 | 135 | 8.0 | 0.0 | 0.00 | 0.00 | 0.00 | 86 | 1065.6 |
| 20260509042859 | 8 | 135 | 4.8 | 0.0 | 0.00 | 0.00 | 0.00 | 86 | 1065.6 |
| 20260509042747 | 8 | 135 | 6.4 | 0.0 | 0.00 | 0.00 | 0.00 | 86 | 1065.5 |
| 20260509042641 | 8 | 135 | 9.7 | 0.0 | 0.00 | 0.00 | 0.00 | 86 | 1065.6 |
| 20260509042519 | 8 | 135 | 8.0 | 0.0 | 0.00 | 0.00 | 0.00 | 87 | 1065.5 |
| 20260509042351 | 8 | 135 | 6.4 | 0.0 | 0.00 | 0.00 | 0.00 | 87 | 1065.6 |
| 20260509042245 | 7 | 135 | 6.4 | 0.0 | 0.00 | 0.00 | 0.00 | 87 | 1065.5 |
| 20260509042132 | 7 | 135 | 3.2 | 0.0 | 0.00 | 0.00 | 0.00 | 87 | 1065.5 |
| 20260509042021 | 7 | 135 | 6.4 | 0.0 | 0.00 | 0.00 | 0.00 | 87 | 1065.5 |
| 20260509041914 | 7 | 135 | 8.0 | 0.0 | 0.00 | 0.00 | 0.00 | 87 | 1065.6 |
| 20260509041753 | 7 | 112 | 6.4 | 0.0 | 0.00 | 0.00 | 0.00 | 87 | 1065.5 |
| 20260509041640 | 7 | 135 | 6.4 | 0.0 | 0.00 | 0.00 | 0.00 | 88 | 1065.6 |
| 20260509041526 | 7 | 135 | 3.2 | 0.0 | 0.00 | 0.00 | 0.00 | 88 | 1065.6 |
| 20260509041412 | 7 | 135 | 1.6 | 0.0 | 0.00 | 0.00 | 0.00 | 88 | 1065.6 |
| 20260509041259 | 7 | 135 | 6.4 | 0.0 | 0.00 | 0.00 | 0.00 | 88 | 1065.6 |
| 20260509041147 | 7 | 135 | 3.2 | 0.0 | 0.00 | 0.00 | 0.00 | 88 | 1065.7 |
| 20260509041034 | 7 | 135 | 6.4 | 0.0 | 0.00 | 0.00 | 0.00 | 88 | 1065.6 |
| 20260509040920 | 7 | 135 | 4.8 | 0.0 | 0.00 | 0.00 | 0.00 | 88 | 1065.7 |
| 20260509040759 | 7 | 135 | 4.8 | 0.0 | 0.00 | 0.00 | 0.00 | 88 | 1065.7 |
| 20260509040646 | 7 | 135 | 4.8 | 0.0 | 0.00 | 0.00 | 0.00 | 88 | 1065.7 |
| 20260509040525 | 7 | 135 | 4.8 | 0.0 | 0.00 | 0.00 | 0.00 | 88 | 1065.7 |
| 20260509040404 | 7 | 135 | 0.0 | 0.0 | 0.00 | 0.00 | 0.00 | 87 | 1065.7 |
| 20260509040251 | 7 | 135 | 3.2 | 0.0 | 0.00 | 0.00 | 0.00 | 87 | 1065.7 |
| 20260509040137 | 7 | 157 | 3.2 | 0.0 | 0.00 | 0.00 | 0.00 | 87 | 1065.7 |
| 20260509040024 | 7 | 135 | 0.0 | 0.0 | 0.00 | 0.00 | 0.00 | 87 | 1065.7 |
| 20260509035905 | 7 | 157 | 0.0 | 0.0 | 0.00 | 0.00 | 0.00 | 87 | 1065.7 |
| 20260509035749 | 7 | 157 | 3.2 | 0.0 | 0.00 | 0.00 | 0.00 | 87 | 1065.7 |
| 20260509035636 | 7 | 135 | 0.0 | 0.0 | 0.00 | 0.00 | 0.00 | 87 | 1065.7 |
| 20260509035517 | 7 | 135 | 0.0 | 0.0 | 0.00 | 0.00 | 0.00 | 87 | 1065.8 |
| 20260509035412 | 7 | 135 | 0.0 | 0.0 | 0.00 | 0.00 | 0.00 | 87 | 1065.7 |
| 20260509035257 | 7 | 135 | 0.0 | 0.0 | 0.00 | 0.00 | 0.00 | 87 | 1065.8 |
| 20260509035145 | 7 | 135 | 0.0 | 0.0 | 0.00 | 0.00 | 0.00 | 87 | 1065.8 |
| 20260509035039 | 7 | 135 | 0.0 | 0.0 | 0.00 | 0.00 | 0.00 | 87 | 1065.7 |
| 20260509034934 | 7 | 135 | 0.0 | 0.0 | 0.00 | 0.00 | 0.00 | 87 | 1065.8 |
| 20260509034827 | 7 | 135 | 6.4 | 0.0 | 0.00 | 0.00 | 0.00 | 87 | 1065.8 |
| 20260509034713 | 7 | 135 | 0.0 | 0.0 | 0.00 | 0.00 | 0.00 | 87 | 1065.8 |
| 20260509034601 | 7 | 135 | 0.0 | 0.0 | 0.00 | 0.00 | 0.00 | 87 | 1065.7 |
| 20260509034448 | 7 | 135 | 0.0 | 0.0 | 0.00 | 0.00 | 0.00 | 87 | 1065.8 |
| 20260509034342 | 7 | 135 | 0.0 | 0.0 | 0.00 | 0.00 | 0.00 | 87 | 1065.7 |
| 20260509034221 | 6 | 135 | 0.0 | 0.0 | 0.00 | 0.00 | 0.00 | 86 | 1065.7 |
| 20260509034108 | 7 | 135 | 0.0 | 0.0 | 0.00 | 0.00 | 0.00 | 86 | 1065.7 |
| 20260509033947 | 7 | 135 | 3.2 | 0.0 | 0.00 | 0.00 | 0.00 | 86 | 1065.8 |
| 20260509033842 | 6 | 135 | 0.0 | 0.0 | 0.00 | 0.00 | 0.00 | 86 | 1065.7 |
| 20260509033720 | 7 | 135 | 0.0 | 0.0 | 0.00 | 0.00 | 0.00 | 86 | 1065.7 |
| 20260509033600 | 7 | 135 | 0.0 | 0.0 | 0.00 | 0.00 | 0.00 | 86 | 1065.7 |
| 20260509033454 | 7 | 135 | 0.0 | 0.0 | 0.00 | 0.00 | 0.00 | 86 | 1065.7 |
| 20260509033349 | 7 | 135 | 0.0 | 0.0 | 0.00 | 0.00 | 0.00 | 86 | 1065.7 |
| 20260509033238 | 7 | 135 | 0.0 | 0.0 | 0.00 | 0.00 | 0.00 | 86 | 1065.7 |
| 20260509033130 | 7 | 135 | 0.0 | 0.0 | 0.00 | 0.00 | 0.00 | 86 | 1065.7 |
| 20260509033010 | 7 | 135 | 0.0 | 0.0 | 0.00 | 0.00 | 0.00 | 86 | 1065.7 |
| 20260509032905 | 7 | 135 | 0.0 | 0.0 | 0.00 | 0.00 | 0.00 | 86 | 1065.7 |
| 20260509032752 | 7 | 135 | 0.0 | 0.0 | 0.00 | 0.00 | 0.00 | 86 | 1065.7 |
| 20260509032630 | 7 | 135 | 0.0 | 0.0 | 0.00 | 0.00 | 0.00 | 86 | 1065.7 |
| 20260509032509 | 7 | 135 | 4.8 | 0.0 | 0.00 | 0.00 | 0.00 | 86 | 1065.7 |
| 20260509032348 | 7 | 135 | 0.0 | 0.0 | 0.00 | 0.00 | 0.00 | 86 | 1065.7 |
| 20260509032243 | 7 | 135 | 1.6 | 0.0 | 0.00 | 0.00 | 0.00 | 86 | 1065.6 |
| 20260509032138 | 7 | 135 | 0.0 | 0.0 | 0.00 | 0.00 | 0.00 | 85 | 1065.7 |
| 20260509032016 | 7 | 135 | 0.0 | 0.0 | 0.00 | 0.00 | 0.00 | 85 | 1065.6 |
| 20260509031903 | 7 | 135 | 3.2 | 0.0 | 0.00 | 0.00 | 0.00 | 85 | 1065.6 |
| 20260509031751 | 7 | 135 | 0.0 | 0.0 | 0.00 | 0.00 | 0.00 | 85 | 1065.7 |
| 20260509031645 | 7 | 135 | 3.2 | 0.0 | 0.00 | 0.00 | 0.00 | 85 | 1065.7 |
| 20260509031532 | 7 | 135 | 6.4 | 0.0 | 0.00 | 0.00 | 0.00 | 85 | 1065.6 |
| 20260509031419 | 7 | 135 | 0.0 | 0.0 | 0.00 | 0.00 | 0.00 | 85 | 1065.7 |
| 20260509031315 | 7 | 135 | 0.0 | 0.0 | 0.00 | 0.00 | 0.00 | 85 | 1065.6 |
| 20260509031210 | 7 | 135 | 3.2 | 0.0 | 0.00 | 0.00 | 0.00 | 85 | 1065.7 |
| 20260509031104 | 7 | 135 | 1.6 | 0.0 | 0.00 | 0.00 | 0.00 | 86 | 1065.7 |
| 20260509030951 | 7 | 135 | 0.0 | 0.0 | 0.00 | 0.00 | 0.00 | 86 | 1065.7 |
| 20260509030846 | 7 | 135 | 0.0 | 0.0 | 0.00 | 0.00 | 0.00 | 86 | 1065.7 |
| 20260509030725 | 7 | 135 | 1.6 | 0.0 | 0.00 | 0.00 | 0.00 | 86 | 1065.7 |
| 20260509030612 | 7 | 135 | 6.4 | 0.0 | 0.00 | 0.00 | 0.00 | 86 | 1065.7 |
| 20260509030507 | 7 | 157 | 3.2 | 0.0 | 0.00 | 0.00 | 0.00 | 86 | 1065.7 |
| 20260509030402 | 7 | 157 | 4.8 | 0.0 | 0.00 | 0.00 | 0.00 | 86 | 1065.6 |
| 20260509030256 | 7 | 157 | 0.0 | 0.0 | 0.00 | 0.00 | 0.00 | 86 | 1065.7 |
| 20260509030145 | 7 | 157 | 0.0 | 0.0 | 0.00 | 0.00 | 0.00 | 86 | 1065.7 |
| 20260509030032 | 7 | 157 | 6.4 | 0.0 | 0.00 | 0.00 | 0.00 | 86 | 1065.7 |
| 20260509025917 | 7 | 157 | 4.8 | 0.0 | 0.00 | 0.00 | 0.00 | 86 | 1065.7 |
| 20260509025805 | 7 | 157 | 6.4 | 0.0 | 0.00 | 0.00 | 0.00 | 86 | 1065.7 |
| 20260509025700 | 7 | 157 | 6.4 | 0.0 | 0.00 | 0.00 | 0.00 | 86 | 1065.7 |
| 20260509025554 | 7 | 157 | 6.4 | 0.0 | 0.00 | 0.00 | 0.00 | 86 | 1065.8 |
| 20260509025449 | 7 | 135 | 6.4 | 0.0 | 0.00 | 0.00 | 0.00 | 86 | 1065.7 |
| 20260509025328 | 7 | 135 | 8.0 | 0.0 | 0.00 | 0.00 | 0.00 | 86 | 1065.7 |
| 20260509025215 | 7 | 135 | 6.4 | 0.0 | 0.00 | 0.00 | 0.00 | 86 | 1065.8 |
| 20260509025102 | 8 | 135 | 8.0 | 0.0 | 0.00 | 0.00 | 0.00 | 86 | 1065.7 |
| 20260509024948 | 7 | 157 | 8.0 | 0.0 | 0.00 | 0.00 | 0.00 | 86 | 1065.8 |
| 20260509024820 | 7 | 135 | 6.4 | 0.0 | 0.00 | 0.00 | 0.00 | 86 | 1065.8 |
| 20260509024714 | 7 | 157 | 6.4 | 0.0 | 0.00 | 0.00 | 0.00 | 86 | 1065.9 |
| 20260509024609 | 7 | 157 | 8.0 | 0.0 | 0.00 | 0.00 | 0.00 | 86 | 1065.9 |
| 20260509024504 | 7 | 135 | 4.8 | 0.0 | 0.00 | 0.00 | 0.00 | 86 | 1065.8 |
| 20260509024351 | 7 | 157 | 0.0 | 0.0 | 0.00 | 0.00 | 0.00 | 86 | 1065.9 |
| 20260509024232 | 7 | 157 | 3.2 | 0.0 | 0.00 | 0.00 | 0.00 | 86 | 1065.9 |
| 20260509024125 | 7 | 157 | 3.2 | 0.0 | 0.00 | 0.00 | 0.00 | 86 | 1066.0 |
| 20260509024012 | 8 | 157 | 8.0 | 0.0 | 0.00 | 0.00 | 0.00 | 85 | 1065.9 |
| 20260509023906 | 8 | 157 | 6.4 | 0.0 | 0.00 | 0.00 | 0.00 | 86 | 1065.9 |
| 20260509023747 | 8 | 157 | 6.4 | 0.0 | 0.00 | 0.00 | 0.00 | 85 | 1065.9 |
| 20260509023634 | 8 | 157 | 3.2 | 0.0 | 0.00 | 0.00 | 0.00 | 86 | 1065.8 |
| 20260509023526 | 8 | 135 | 4.8 | 0.0 | 0.00 | 0.00 | 0.00 | 86 | 1065.9 |
| 20260509023416 | 8 | 157 | 1.6 | 0.0 | 0.00 | 0.00 | 0.00 | 86 | 1065.8 |
| 20260509023309 | 8 | 135 | 3.2 | 0.0 | 0.00 | 0.00 | 0.00 | 86 | 1065.8 |
| 20260509023155 | 8 | 135 | 3.2 | 0.0 | 0.00 | 0.00 | 0.00 | 86 | 1065.9 |
| 20260509023027 | 8 | 135 | 3.2 | 0.0 | 0.00 | 0.00 | 0.00 | 85 | 1065.9 |
| 20260509022922 | 8 | 157 | 3.2 | 0.0 | 0.00 | 0.00 | 0.00 | 85 | 1065.8 |
| 20260509022816 | 8 | 135 | 8.0 | 0.0 | 0.00 | 0.00 | 0.00 | 85 | 1065.9 |
| 20260509022647 | 8 | 135 | 6.4 | 0.0 | 0.00 | 0.00 | 0.00 | 86 | 1065.8 |
| 20260509022534 | 8 | 135 | 3.2 | 0.0 | 0.00 | 0.00 | 0.00 | 86 | 1065.9 |
| 20260509022421 | 8 | 135 | 4.8 | 0.0 | 0.00 | 0.00 | 0.00 | 86 | 1065.8 |
| 20260509022308 | 8 | 157 | 6.4 | 0.0 | 0.00 | 0.00 | 0.00 | 86 | 1065.8 |
| 20260509022146 | 8 | 135 | 4.8 | 0.0 | 0.00 | 0.00 | 0.00 | 86 | 1065.8 |
| 20260509022033 | 8 | 135 | 6.4 | 0.0 | 0.00 | 0.00 | 0.00 | 86 | 1065.8 |
| 20260509021912 | 8 | 135 | 3.2 | 0.0 | 0.00 | 0.00 | 0.00 | 86 | 1065.8 |
| 20260509021759 | 8 | 157 | 8.0 | 0.0 | 0.00 | 0.00 | 0.00 | 86 | 1065.9 |
| 20260509021638 | 8 | 135 | 4.8 | 0.0 | 0.00 | 0.00 | 0.00 | 86 | 1065.9 |
| 20260509021527 | 8 | 135 | 9.7 | 0.0 | 0.00 | 0.00 | 0.00 | 86 | 1065.8 |
| 20260509021419 | 8 | 157 | 9.7 | 0.0 | 0.00 | 0.00 | 0.00 | 86 | 1065.8 |
| 20260509021306 | 7 | 157 | 6.4 | 0.0 | 0.00 | 0.00 | 0.00 | 86 | 1065.8 |
| 20260509021145 | 7 | 135 | 8.0 | 0.0 | 0.00 | 0.00 | 0.00 | 86 | 1065.8 |
| 20260509021035 | 7 | 157 | 3.2 | 0.0 | 0.00 | 0.00 | 0.00 | 86 | 1065.8 |
| 20260509020927 | 8 | 135 | 1.6 | 0.0 | 0.00 | 0.00 | 0.00 | 86 | 1065.8 |
| 20260509020814 | 7 | 157 | 3.2 | 0.0 | 0.00 | 0.00 | 0.00 | 86 | 1065.9 |
| 20260509020701 | 7 | 157 | 6.4 | 0.0 | 0.00 | 0.00 | 0.00 | 86 | 1065.8 |
| 20260509020556 | 7 | 135 | 3.2 | 0.0 | 0.00 | 0.00 | 0.00 | 86 | 1065.8 |
| 20260509020445 | 7 | 135 | 1.6 | 0.0 | 0.00 | 0.00 | 0.00 | 86 | 1065.8 |
| 20260509020338 | 7 | 135 | 8.0 | 0.0 | 0.00 | 0.00 | 0.00 | 86 | 1065.9 |
| 20260509020224 | 8 | 135 | 3.2 | 0.0 | 0.00 | 0.00 | 0.00 | 86 | 1065.9 |
| 20260509020112 | 8 | 135 | 0.0 | 0.0 | 0.00 | 0.00 | 0.00 | 86 | 1065.9 |
| 20260509015952 | 8 | 112 | 0.0 | 0.0 | 0.00 | 0.00 | 0.00 | 86 | 1065.9 |
| 20260509015846 | 7 | 135 | 0.0 | 0.0 | 0.00 | 0.00 | 0.00 | 86 | 1065.9 |
| 20260509015734 | 7 | 135 | 0.0 | 0.0 | 0.00 | 0.00 | 0.00 | 86 | 1065.9 |
| 20260509015627 | 7 | 135 | 6.4 | 0.0 | 0.00 | 0.00 | 0.00 | 86 | 1065.9 |
| 20260509015514 | 7 | 135 | 1.6 | 0.0 | 0.00 | 0.00 | 0.00 | 86 | 1065.9 |
| 20260509015401 | 7 | 135 | 8.0 | 0.0 | 0.00 | 0.00 | 0.00 | 86 | 1065.9 |
| 20260509015256 | 7 | 135 | 3.2 | 0.0 | 0.00 | 0.00 | 0.00 | 86 | 1065.9 |
| 20260509015135 | 7 | 135 | 0.0 | 0.0 | 0.00 | 0.00 | 0.00 | 86 | 1065.9 |
| 20260509015022 | 7 | 135 | 0.0 | 0.0 | 0.00 | 0.00 | 0.00 | 86 | 1065.9 |
| 20260509014919 | 7 | 135 | 0.0 | 0.0 | 0.00 | 0.00 | 0.00 | 86 | 1065.9 |
| 20260509014812 | 7 | 157 | 6.4 | 0.0 | 0.00 | 0.00 | 0.00 | 86 | 1065.9 |
| 20260509014659 | 7 | 135 | 4.8 | 0.0 | 0.00 | 0.00 | 0.00 | 86 | 1065.9 |
| 20260509014546 | 7 | 135 | 4.8 | 0.0 | 0.00 | 0.00 | 0.00 | 86 | 1065.8 |
| 20260509014433 | 7 | 135 | 3.2 | 0.0 | 0.00 | 0.00 | 0.00 | 86 | 1065.9 |
| 20260509014327 | 7 | 135 | 0.0 | 0.0 | 0.00 | 0.00 | 0.00 | 86 | 1065.9 |
| 20260509014206 | 7 | 157 | 6.4 | 0.0 | 0.00 | 0.00 | 0.00 | 86 | 1065.9 |
| 20260509014053 | 7 | 135 | 6.4 | 0.0 | 0.00 | 0.00 | 0.00 | 86 | 1065.8 |
| 20260509013940 | 7 | 157 | 8.0 | 0.0 | 0.00 | 0.00 | 0.00 | 86 | 1065.8 |
| 20260509013827 | 7 | 135 | 6.4 | 0.0 | 0.00 | 0.00 | 0.00 | 86 | 1065.9 |
| 20260509013722 | 7 | 157 | 1.6 | 0.0 | 0.00 | 0.00 | 0.00 | 86 | 1065.9 |
| 20260509013617 | 7 | 157 | 4.8 | 0.0 | 0.00 | 0.00 | 0.00 | 86 | 1065.9 |
| 20260509013512 | 7 | 157 | 0.0 | 0.0 | 0.00 | 0.00 | 0.00 | 85 | 1065.8 |
| 20260509013406 | 7 | 135 | 4.8 | 0.0 | 0.00 | 0.00 | 0.00 | 85 | 1065.8 |
| 20260509013247 | 7 | 157 | 0.0 | 0.0 | 0.00 | 0.00 | 0.00 | 85 | 1065.8 |
| 20260509013132 | 7 | 157 | 0.0 | 0.0 | 0.00 | 0.00 | 0.00 | 85 | 1065.8 |
| 20260509013019 | 7 | 157 | 0.0 | 0.0 | 0.00 | 0.00 | 0.00 | 85 | 1065.8 |
| 20260509012915 | 7 | 157 | 0.0 | 0.0 | 0.00 | 0.00 | 0.00 | 85 | 1065.7 |
| 20260509012809 | 7 | 157 | 4.8 | 0.0 | 0.00 | 0.00 | 0.00 | 85 | 1065.6 |
| 20260509012648 | 7 | 157 | 0.0 | 0.0 | 0.00 | 0.00 | 0.00 | 85 | 1065.8 |
| 20260509012535 | 7 | 157 | 1.6 | 0.0 | 0.00 | 0.00 | 0.00 | 85 | 1065.8 |
| 20260509012422 | 7 | 135 | 0.0 | 0.0 | 0.00 | 0.00 | 0.00 | 85 | 1065.7 |
| 20260509012308 | 7 | 135 | 0.0 | 0.0 | 0.00 | 0.00 | 0.00 | 85 | 1065.7 |
| 20260509012155 | 7 | 135 | 0.0 | 0.0 | 0.00 | 0.00 | 0.00 | 85 | 1065.7 |
| 20260509012042 | 7 | 135 | 0.0 | 0.0 | 0.00 | 0.00 | 0.00 | 85 | 1065.7 |
| 20260509011929 | 7 | 135 | 0.0 | 0.0 | 0.00 | 0.00 | 0.00 | 85 | 1065.6 |
| 20260509011825 | 7 | 135 | 0.0 | 0.0 | 0.00 | 0.00 | 0.00 | 85 | 1065.7 |
| 20260509011720 | 7 | 135 | 3.2 | 0.0 | 0.00 | 0.00 | 0.00 | 85 | 1065.8 |
| 20260509011614 | 7 | 135 | 0.0 | 0.0 | 0.00 | 0.00 | 0.00 | 85 | 1065.6 |
| 20260509011510 | 7 | 135 | 4.8 | 0.0 | 0.00 | 0.00 | 0.00 | 85 | 1065.7 |
| 20260509011407 | 7 | 157 | 1.6 | 0.0 | 0.00 | 0.00 | 0.00 | 85 | 1065.7 |
| 20260509011259 | 7 | 157 | 0.0 | 0.0 | 0.00 | 0.00 | 0.00 | 85 | 1065.7 |
| 20260509011137 | 7 | 157 | 0.0 | 0.0 | 0.00 | 0.00 | 0.00 | 85 | 1065.8 |
| 20260509011017 | 7 | 157 | 0.0 | 0.0 | 0.00 | 0.00 | 0.00 | 85 | 1065.8 |
| 20260509010905 | 7 | 135 | 0.0 | 0.0 | 0.00 | 0.00 | 0.00 | 85 | 1065.8 |
| 20260509010801 | 7 | 135 | 0.0 | 0.0 | 0.00 | 0.00 | 0.00 | 85 | 1065.8 |
| 20260509010647 | 7 | 135 | 0.0 | 0.0 | 0.00 | 0.00 | 0.00 | 85 | 1065.8 |
| 20260509010533 | 7 | 135 | 0.0 | 0.0 | 0.00 | 0.00 | 0.00 | 85 | 1065.7 |
| 20260509010428 | 7 | 157 | 3.2 | 0.0 | 0.00 | 0.00 | 0.00 | 85 | 1065.8 |
| 20260509010314 | 7 | 157 | 4.8 | 0.0 | 0.00 | 0.00 | 0.00 | 85 | 1065.9 |
| 20260509005918 | 7 | 135 | 3.2 | 0.0 | 0.00 | 0.00 | 0.00 | 85 | 1065.9 |
| 20260509005801 | 7 | 157 | 8.0 | 0.0 | 0.00 | 0.00 | 0.00 | 85 | 1065.8 |
| 20260509005645 | 7 | 135 | 3.2 | 0.0 | 0.00 | 0.00 | 0.00 | 85 | 1065.8 |
| 20260509005539 | 7 | 135 | 8.0 | 0.0 | 0.00 | 0.00 | 0.00 | 85 | 1065.8 |
| 20260509005434 | 7 | 135 | 6.4 | 0.0 | 0.00 | 0.00 | 0.00 | 84 | 1065.8 |
| 20260509005306 | 7 | 135 | 6.4 | 0.0 | 0.00 | 0.00 | 0.00 | 84 | 1065.8 |
| 20260509005152 | 7 | 135 | 4.8 | 0.0 | 0.00 | 0.00 | 0.00 | 84 | 1065.8 |
| 20260509005047 | 7 | 135 | 6.4 | 0.0 | 0.00 | 0.00 | 0.00 | 84 | 1065.9 |
| 20260509004942 | 7 | 135 | 0.0 | 0.0 | 0.00 | 0.00 | 0.00 | 84 | 1065.7 |
| 20260509004837 | 7 | 135 | 0.0 | 0.0 | 0.00 | 0.00 | 0.00 | 84 | 1065.8 |
| 20260509004732 | 7 | 135 | 0.0 | 0.0 | 0.00 | 0.00 | 0.00 | 84 | 1065.7 |
| 20260509004627 | 7 | 135 | 0.0 | 0.0 | 0.00 | 0.00 | 0.00 | 84 | 1065.7 |
| 20260509004522 | 7 | 135 | 0.0 | 0.0 | 0.00 | 0.00 | 0.00 | 84 | 1065.8 |
| 20260509004416 | 7 | 135 | 0.0 | 0.0 | 0.00 | 0.00 | 0.00 | 84 | 1065.7 |
| 20260509004303 | 7 | 135 | 1.6 | 0.0 | 0.00 | 0.00 | 0.00 | 84 | 1065.6 |
| 20260509004151 | 7 | 135 | 0.0 | 0.0 | 0.00 | 0.00 | 0.00 | 84 | 1065.5 |
| 20260509004047 | 7 | 135 | 0.0 | 0.0 | 0.00 | 0.00 | 0.00 | 83 | 1065.6 |
| 20260509003939 | 7 | 135 | 0.0 | 0.0 | 0.00 | 0.00 | 0.00 | 83 | 1065.6 |
| 20260509003818 | 7 | 135 | 0.0 | 0.0 | 0.00 | 0.00 | 0.00 | 83 | 1065.5 |
| 20260509003713 | 7 | 135 | 0.0 | 0.0 | 0.00 | 0.00 | 0.00 | 83 | 1065.6 |
| 20260509003606 | 7 | 135 | 0.0 | 0.0 | 0.00 | 0.00 | 0.00 | 83 | 1065.6 |
| 20260509003500 | 7 | 135 | 1.6 | 0.0 | 0.00 | 0.00 | 0.00 | 83 | 1065.6 |
| 20260509003345 | 7 | 135 | 6.4 | 0.0 | 0.00 | 0.00 | 0.00 | 83 | 1065.6 |
| 20260509003225 | 7 | 135 | 0.0 | 0.0 | 0.00 | 0.00 | 0.00 | 83 | 1065.6 |
| 20260509003120 | 7 | 157 | 0.0 | 0.0 | 0.00 | 0.00 | 0.00 | 83 | 1065.5 |
| 20260509003015 | 7 | 157 | 0.0 | 0.0 | 0.00 | 0.00 | 0.00 | 83 | 1065.6 |
| 20260509002902 | 7 | 135 | 0.0 | 0.0 | 0.00 | 0.00 | 0.00 | 83 | 1065.6 |
| 20260509002756 | 7 | 135 | 0.0 | 0.0 | 0.00 | 0.00 | 0.00 | 83 | 1065.6 |
| 20260509002651 | 7 | 135 | 3.2 | 0.0 | 0.00 | 0.00 | 0.00 | 83 | 1065.6 |
| 20260509002545 | 7 | 135 | 0.0 | 0.0 | 0.00 | 0.00 | 0.00 | 83 | 1065.6 |
| 20260509002440 | 7 | 135 | 0.0 | 0.0 | 0.00 | 0.00 | 0.00 | 83 | 1065.5 |
| 20260509002319 | 7 | 135 | 0.0 | 0.0 | 0.00 | 0.00 | 0.00 | 83 | 1065.5 |
| 20260509002207 | 7 | 135 | 3.2 | 0.0 | 0.00 | 0.00 | 0.00 | 82 | 1065.5 |
| 20260509002102 | 7 | 135 | 0.0 | 0.0 | 0.00 | 0.00 | 0.00 | 82 | 1065.5 |
| 20260509001955 | 7 | 135 | 0.0 | 0.0 | 0.00 | 0.00 | 0.00 | 82 | 1065.5 |
| 20260509001850 | 7 | 135 | 0.0 | 0.0 | 0.00 | 0.00 | 0.00 | 82 | 1065.6 |
| 20260509001728 | 7 | 135 | 0.0 | 0.0 | 0.00 | 0.00 | 0.00 | 82 | 1065.5 |
| 20260509001608 | 7 | 135 | 0.0 | 0.0 | 0.00 | 0.00 | 0.00 | 82 | 1065.5 |
| 20260509001455 | 7 | 135 | 0.0 | 0.0 | 0.00 | 0.00 | 0.00 | 82 | 1065.5 |
| 20260509001349 | 7 | 135 | 0.0 | 0.0 | 0.00 | 0.00 | 0.00 | 82 | 1065.5 |
| 20260509001244 | 7 | 135 | 0.0 | 0.0 | 0.00 | 0.00 | 0.00 | 82 | 1065.5 |
| 20260509001124 | 7 | 135 | 0.0 | 0.0 | 0.00 | 0.00 | 0.00 | 82 | 1065.5 |
| 20260509001018 | 7 | 135 | 3.2 | 0.0 | 0.00 | 0.00 | 0.00 | 82 | 1065.4 |
| 20260509000856 | 7 | 112 | 4.8 | 0.0 | 0.00 | 0.00 | 0.00 | 82 | 1065.5 |
| 20260509000736 | 7 | 135 | 0.0 | 0.0 | 0.00 | 0.00 | 0.00 | 82 | 1065.5 |
| 20260509000630 | 7 | 135 | 0.0 | 0.0 | 0.00 | 0.00 | 0.00 | 82 | 1065.5 |
| 20260509000518 | 7 | 135 | 4.8 | 0.0 | 0.00 | 0.00 | 0.00 | 82 | 1065.5 |
| 20260509000403 | 7 | 135 | 1.6 | 0.0 | 0.00 | 0.00 | 0.00 | 82 | 1065.5 |
| 20260509000243 | 7 | 135 | 4.8 | 0.0 | 0.00 | 0.00 | 0.00 | 82 | 1065.5 |
| 20260509000130 | 7 | 135 | 3.2 | 0.0 | 0.00 | 0.00 | 0.00 | 82 | 1065.5 |
| 20260509000017 | 7 | 135 | 3.2 | 0.0 | 0.00 | 0.00 | 0.00 | 82 | 1065.5 |
| 20260508235912 | 7 | 135 | 4.8 | 0.0 | 0.00 | 0.00 | 0.00 | 82 | 1065.4 |
| 20260508235807 | 7 | 112 | 6.4 | 0.0 | 0.00 | 0.00 | 0.00 | 82 | 1065.5 |
| 20260508235702 | 7 | 135 | 9.7 | 0.0 | 0.00 | 0.00 | 0.00 | 82 | 1065.5 |
| 20260508235550 | 7 | 135 | 3.2 | 0.0 | 0.00 | 0.00 | 0.00 | 82 | 1065.5 |
| 20260508235443 | 7 | 135 | 4.8 | 0.0 | 0.00 | 0.00 | 0.00 | 82 | 1065.5 |
| 20260508235330 | 7 | 135 | 4.8 | 0.0 | 0.00 | 0.00 | 0.00 | 82 | 1065.5 |
| 20260508235154 | 7 | 135 | 8.0 | 0.0 | 0.00 | 0.00 | 0.00 | 82 | 1065.5 |
| 20260508235040 | 7 | 135 | 8.0 | 0.0 | 0.00 | 0.00 | 0.00 | 82 | 1065.5 |
| 20260508234927 | 7 | 135 | 6.4 | 0.0 | 0.00 | 0.00 | 0.00 | 82 | 1065.5 |
| 20260508234821 | 7 | 112 | 1.6 | 0.0 | 0.00 | 0.00 | 0.00 | 82 | 1065.5 |
| 20260508234652 | 7 | 112 | 8.0 | 0.0 | 0.00 | 0.00 | 0.00 | 82 | 1065.5 |
| 20260508234540 | 7 | 112 | 0.0 | 0.0 | 0.00 | 0.00 | 0.00 | 82 | 1065.6 |
| 20260508234419 | 7 | 112 | 3.2 | 0.0 | 0.00 | 0.00 | 0.00 | 82 | 1065.5 |
| 20260508234305 | 7 | 112 | 6.4 | 0.0 | 0.00 | 0.00 | 0.00 | 82 | 1065.7 |
| 20260508234152 | 7 | 135 | 1.6 | 0.0 | 0.00 | 0.00 | 0.00 | 82 | 1065.6 |
| 20260508234047 | 7 | 135 | 3.2 | 0.0 | 0.00 | 0.00 | 0.00 | 82 | 1065.6 |
| 20260508233942 | 7 | 112 | 6.4 | 0.0 | 0.00 | 0.00 | 0.00 | 82 | 1065.5 |
| 20260508233836 | 7 | 135 | 6.4 | 0.0 | 0.00 | 0.00 | 0.00 | 81 | 1065.5 |
| 20260508233707 | 7 | 135 | 8.0 | 0.0 | 0.00 | 0.00 | 0.00 | 81 | 1065.6 |
| 20260508233546 | 7 | 135 | 6.4 | 0.0 | 0.00 | 0.00 | 0.00 | 81 | 1065.5 |
| 20260508233426 | 7 | 112 | 0.0 | 0.0 | 0.00 | 0.00 | 0.00 | 81 | 1065.5 |
| 20260508233320 | 7 | 112 | 4.8 | 0.0 | 0.00 | 0.00 | 0.00 | 81 | 1065.5 |
| 20260508233207 | 7 | 112 | 4.8 | 0.0 | 0.00 | 0.00 | 0.00 | 80 | 1065.6 |
| 20260508233055 | 8 | 90 | 0.0 | 0.0 | 0.00 | 0.00 | 0.00 | 80 | 1065.6 |
| 20260508232932 | 8 | 90 | 0.0 | 0.0 | 0.00 | 0.00 | 0.00 | 80 | 1065.6 |
| 20260508232820 | 8 | 90 | 1.6 | 0.0 | 0.00 | 0.00 | 0.00 | 80 | 1065.6 |
| 20260508232658 | 8 | 112 | 0.0 | 0.0 | 0.00 | 0.00 | 0.00 | 80 | 1065.6 |
| 20260508232535 | 8 | 112 | 0.0 | 0.0 | 0.00 | 0.00 | 0.00 | 80 | 1065.6 |
| 20260508232417 | 8 | 112 | 0.0 | 0.0 | 0.00 | 0.00 | 0.00 | 79 | 1065.6 |
| 20260508232312 | 8 | 67 | 0.0 | 0.0 | 0.00 | 0.00 | 0.00 | 79 | 1065.6 |
| 20260508232157 | 8 | 67 | 0.0 | 0.0 | 0.00 | 0.00 | 0.00 | 80 | 1065.7 |
| 20260508232037 | 8 | 67 | 0.0 | 0.0 | 0.00 | 0.00 | 0.00 | 80 | 1065.7 |
| 20260508231933 | 8 | 67 | 0.0 | 0.0 | 0.00 | 0.00 | 0.00 | 80 | 1065.8 |
| 20260508231827 | 8 | 112 | 0.0 | 0.0 | 0.00 | 0.00 | 0.00 | 80 | 1065.7 |
| 20260508231723 | 8 | 112 | 0.0 | 0.0 | 0.00 | 0.00 | 0.00 | 80 | 1065.7 |
| 20260508231618 | 8 | 112 | 0.0 | 0.0 | 0.00 | 0.00 | 0.00 | 80 | 1065.7 |
| 20260508231504 | 8 | 112 | 3.2 | 0.0 | 0.00 | 0.00 | 0.00 | 79 | 1065.7 |
| 20260508231350 | 8 | 67 | 6.4 | 0.0 | 0.00 | 0.00 | 0.00 | 79 | 1065.6 |
| 20260508231237 | 8 | 90 | 6.4 | 0.0 | 0.00 | 0.00 | 0.00 | 79 | 1065.6 |
| 20260508231115 | 8 | 112 | 4.8 | 0.0 | 0.00 | 0.00 | 0.00 | 79 | 1065.6 |
| 20260508230955 | 8 | 112 | 3.2 | 0.0 | 0.00 | 0.00 | 0.00 | 79 | 1065.6 |
| 20260508230849 | 8 | 135 | 6.4 | 0.0 | 0.00 | 0.00 | 0.00 | 79 | 1065.6 |
| 20260508230729 | 8 | 112 | 3.2 | 0.0 | 0.00 | 0.00 | 0.00 | 79 | 1065.6 |
| 20260508230617 | 8 | 135 | 8.0 | 0.0 | 0.00 | 0.00 | 0.00 | 79 | 1065.6 |
| 20260508230502 | 8 | 135 | 4.8 | 0.0 | 0.00 | 0.00 | 0.00 | 79 | 1065.6 |
| 20260508230349 | 8 | 135 | 6.4 | 0.0 | 0.00 | 0.00 | 0.00 | 79 | 1065.6 |
| 20260508230230 | 8 | 135 | 6.4 | 0.0 | 0.00 | 0.00 | 0.00 | 79 | 1065.6 |
| 20260508230126 | 8 | 135 | 1.6 | 0.0 | 0.00 | 0.00 | 0.00 | 79 | 1065.6 |
| 20260508230017 | 8 | 135 | 4.8 | 0.0 | 0.00 | 0.00 | 0.00 | 79 | 1065.5 |
| 20260508225904 | 8 | 135 | 6.4 | 0.0 | 0.00 | 0.00 | 0.00 | 79 | 1065.5 |
| 20260508225754 | 8 | 135 | 8.0 | 0.0 | 0.00 | 0.00 | 0.00 | 80 | 1065.6 |
| 20260508225639 | 8 | 135 | 9.7 | 0.0 | 0.00 | 0.00 | 0.00 | 80 | 1065.5 |
| 20260508225534 | 8 | 135 | 3.2 | 0.0 | 0.00 | 0.00 | 0.00 | 80 | 1065.5 |
| 20260508225431 | 8 | 135 | 3.2 | 0.0 | 0.00 | 0.00 | 0.00 | 80 | 1065.6 |
| 20260508225325 | 8 | 135 | 3.2 | 0.0 | 0.00 | 0.00 | 0.00 | 80 | 1065.5 |
| 20260508225218 | 8 | 135 | 4.8 | 0.0 | 0.00 | 0.00 | 0.00 | 81 | 1065.6 |
| 20260508225057 | 8 | 112 | 3.2 | 0.0 | 0.00 | 0.00 | 0.00 | 81 | 1065.5 |
| 20260508224935 | 8 | 135 | 6.4 | 0.0 | 0.00 | 0.00 | 0.00 | 81 | 1065.5 |
| 20260508224814 | 8 | 112 | 8.0 | 0.0 | 0.00 | 0.00 | 0.00 | 81 | 1065.5 |
| 20260508224702 | 8 | 112 | 4.8 | 0.0 | 0.00 | 0.00 | 0.00 | 81 | 1065.5 |
| 20260508224557 | 8 | 135 | 8.0 | 0.0 | 0.00 | 0.00 | 0.00 | 81 | 1065.5 |
| 20260508224443 | 8 | 135 | 6.4 | 0.0 | 0.00 | 0.00 | 0.00 | 81 | 1065.5 |
| 20260508224322 | 8 | 135 | 8.0 | 0.0 | 0.00 | 0.00 | 0.00 | 81 | 1065.6 |
| 20260508224217 | 8 | 135 | 0.0 | 0.0 | 0.00 | 0.00 | 0.00 | 81 | 1065.5 |
| 20260508224058 | 8 | 135 | 0.0 | 0.0 | 0.00 | 0.00 | 0.00 | 81 | 1065.5 |
| 20260508223951 | 8 | 135 | 4.8 | 0.0 | 0.00 | 0.00 | 0.00 | 81 | 1065.6 |
| 20260508223837 | 8 | 135 | 3.2 | 0.0 | 0.00 | 0.00 | 0.00 | 81 | 1065.6 |
| 20260508223726 | 8 | 135 | 6.4 | 0.0 | 0.00 | 0.00 | 0.00 | 81 | 1065.6 |
| 20260508223619 | 8 | 157 | 4.8 | 0.0 | 0.00 | 0.00 | 0.00 | 80 | 1065.6 |
| 20260508223458 | 8 | 135 | 0.0 | 0.0 | 0.00 | 0.00 | 0.00 | 80 | 1065.6 |
| 20260508223329 | 8 | 135 | 0.0 | 0.0 | 0.00 | 0.00 | 0.00 | 80 | 1065.6 |
| 20260508223216 | 8 | 112 | 0.0 | 0.0 | 0.00 | 0.00 | 0.00 | 80 | 1065.6 |
| 20260508223054 | 8 | 112 | 0.0 | 0.0 | 0.00 | 0.00 | 0.00 | 80 | 1065.6 |
| 20260508222925 | 8 | 112 | 0.0 | 0.0 | 0.00 | 0.00 | 0.00 | 80 | 1065.6 |
| 20260508222812 | 8 | 112 | 0.0 | 0.0 | 0.00 | 0.00 | 0.00 | 80 | 1065.6 |
| 20260508222650 | 8 | 112 | 0.0 | 0.0 | 0.00 | 0.00 | 0.00 | 80 | 1065.6 |
| 20260508222529 | 8 | 112 | 0.0 | 0.0 | 0.00 | 0.00 | 0.00 | 80 | 1065.6 |
| 20260508222408 | 8 | 112 | 0.0 | 0.0 | 0.00 | 0.00 | 0.00 | 80 | 1065.6 |
| 20260508222258 | 8 | 112 | 0.0 | 0.0 | 0.00 | 0.00 | 0.00 | 79 | 1065.6 |
| 20260508222149 | 8 | 112 | 0.0 | 0.0 | 0.00 | 0.00 | 0.00 | 79 | 1065.6 |
| 20260508222031 | 8 | 90 | 0.0 | 0.0 | 0.00 | 0.00 | 0.00 | 79 | 1065.6 |
| 20260508221924 | 8 | 90 | 0.0 | 0.0 | 0.00 | 0.00 | 0.00 | 79 | 1065.6 |
| 20260508221810 | 8 | 90 | 0.0 | 0.0 | 0.00 | 0.00 | 0.00 | 79 | 1065.7 |
| 20260508221649 | 8 | 90 | 0.0 | 0.0 | 0.00 | 0.00 | 0.00 | 79 | 1065.7 |
| 20260508221521 | 8 | 90 | 0.0 | 0.0 | 0.00 | 0.00 | 0.00 | 79 | 1065.7 |
| 20260508221415 | 8 | 90 | 0.0 | 0.0 | 0.00 | 0.00 | 0.00 | 79 | 1065.6 |
| 20260508221302 | 8 | 90 | 3.2 | 0.0 | 0.00 | 0.00 | 0.00 | 79 | 1065.6 |
| 20260508221140 | 8 | 90 | 6.4 | 0.0 | 0.00 | 0.00 | 0.00 | 79 | 1065.6 |
| 20260508221019 | 8 | 90 | 4.8 | 0.0 | 0.00 | 0.00 | 0.00 | 79 | 1065.6 |
| 20260508220850 | 9 | 90 | 0.0 | 0.0 | 0.00 | 0.00 | 0.00 | 78 | 1065.6 |
| 20260508220738 | 9 | 112 | 0.0 | 0.0 | 0.00 | 0.00 | 0.00 | 78 | 1065.5 |
| 20260508220633 | 9 | 90 | 0.0 | 0.0 | 0.00 | 0.00 | 0.00 | 78 | 1065.6 |
| 20260508220527 | 9 | 90 | 0.0 | 0.0 | 0.00 | 0.00 | 0.00 | 78 | 1065.6 |
| 20260508220405 | 9 | 90 | 0.0 | 0.0 | 0.00 | 0.00 | 0.00 | 77 | 1065.6 |
| 20260508220251 | 9 | 90 | 0.0 | 0.0 | 0.00 | 0.00 | 0.00 | 77 | 1065.6 |
| 20260508220130 | 9 | 90 | 0.0 | 0.0 | 0.00 | 0.00 | 0.00 | 77 | 1065.6 |
| 20260508220022 | 9 | 112 | 3.2 | 0.0 | 0.00 | 0.00 | 0.00 | 77 | 1065.6 |
| 20260508215900 | 9 | 90 | 6.4 | 0.0 | 0.00 | 0.00 | 0.00 | 77 | 1065.6 |
| 20260508215746 | 9 | 90 | 6.4 | 0.0 | 0.00 | 0.00 | 0.00 | 77 | 1065.6 |
| 20260508215641 | 9 | 67 | 0.0 | 0.0 | 0.00 | 0.00 | 0.00 | 77 | 1065.6 |
| 20260508215535 | 9 | 90 | 0.0 | 0.0 | 0.00 | 0.00 | 0.00 | 77 | 1065.6 |
| 20260508215419 | 9 | 90 | 3.2 | 0.0 | 0.00 | 0.00 | 0.00 | 77 | 1065.6 |
| 20260508215259 | 9 | 67 | 4.8 | 0.0 | 0.00 | 0.00 | 0.00 | 77 | 1065.6 |
| 20260508215150 | 9 | 90 | 4.8 | 0.0 | 0.00 | 0.00 | 0.00 | 77 | 1065.6 |
| 20260508215029 | 9 | 90 | 6.4 | 0.0 | 0.00 | 0.00 | 0.00 | 76 | 1065.6 |
| 20260508214917 | 9 | 90 | 6.4 | 0.0 | 0.00 | 0.00 | 0.00 | 76 | 1065.6 |
| 20260508214808 | 9 | 112 | 6.4 | 0.0 | 0.00 | 0.00 | 0.00 | 76 | 1065.6 |
| 20260508214656 | 9 | 90 | 4.8 | 0.0 | 0.00 | 0.00 | 0.00 | 76 | 1065.5 |
| 20260508214548 | 9 | 112 | 8.0 | 0.0 | 0.00 | 0.00 | 0.00 | 76 | 1065.6 |
| 20260508214435 | 9 | 90 | 4.8 | 0.0 | 0.00 | 0.00 | 0.00 | 76 | 1065.6 |
| 20260508214329 | 9 | 112 | 4.8 | 0.0 | 0.00 | 0.00 | 0.00 | 76 | 1065.5 |
| 20260508214210 | 9 | 90 | 0.0 | 0.0 | 0.00 | 0.00 | 0.00 | 76 | 1065.6 |